<?xml version='1.0' encoding='UTF-8'?>
<gpx xmlns="http://www.topografix.com/GPX/1/1" creator="www.balnam.be" version="1.1" xmlns:xsi="http://www.w3.org/2001/XMLSchema-instance" xsi:schemaLocation="http://www.topografix.com/GPX/1/1 http://www.topografix.com/GPX/1/1/gpx.xsd">
<trk>
<name>hfcfc1</name>
<cmt>v</cmt>
<desc>Froidchapelle Chemin n°1 </desc>
<link href="https://chemins.be/froidchapelle/chemin/1"/><trkseg>
<trkpt lat="50.133024" lon="4.316189"><time>2026-05-02T23:25:21Z</time></trkpt>
<trkpt lat="50.134510" lon="4.314237"><time>2026-05-02T23:35:21Z</time></trkpt>
<trkpt lat="50.134993" lon="4.313007"><time>2026-05-02T23:45:21Z</time></trkpt>
<trkpt lat="50.135995" lon="4.310460"><time>2026-05-02T23:55:21Z</time></trkpt>
<trkpt lat="50.137037" lon="4.309516"><time>2026-05-03T00:05:21Z</time></trkpt>
<trkpt lat="50.137596" lon="4.308749"><time>2026-05-03T00:15:21Z</time></trkpt>
<trkpt lat="50.140025" lon="4.305418"><time>2026-05-03T00:25:21Z</time></trkpt>
</trkseg>
</trk>
<trk>
<name>hfcfc100</name>
<cmt>q</cmt>
<desc>Froidchapelle Sentier n°100 </desc>
<link href="https://chemins.be/froidchapelle/sentier/100"/><trkseg>
<trkpt lat="50.145096" lon="4.329052"><time>2026-05-02T23:25:21Z</time></trkpt>
<trkpt lat="50.144938" lon="4.329746"><time>2026-05-02T23:35:21Z</time></trkpt>
<trkpt lat="50.144573" lon="4.329825"><time>2026-05-02T23:45:21Z</time></trkpt>
</trkseg></trk>
<trk>
<name>hfcfc100</name>
<cmt>r</cmt>
<desc>Froidchapelle Sentier n°100 </desc>
<link href="https://chemins.be/froidchapelle/sentier/100"/><trkseg>
<trkpt lat="50.144573" lon="4.329825"><time>2026-05-02T23:45:21Z</time></trkpt>
<trkpt lat="50.144507" lon="4.330862"><time>2026-05-02T23:55:21Z</time></trkpt>
</trkseg></trk>
<trk>
<name>hfcfc100</name>
<cmt>q</cmt>
<desc>Froidchapelle Sentier n°100 </desc>
<link href="https://chemins.be/froidchapelle/sentier/100"/><trkseg>
<trkpt lat="50.144507" lon="4.330862"><time>2026-05-02T23:55:21Z</time></trkpt>
<trkpt lat="50.144060" lon="4.331370"><time>2026-05-03T00:05:21Z</time></trkpt>
<trkpt lat="50.143609" lon="4.331705"><time>2026-05-03T00:15:21Z</time></trkpt>
</trkseg>
</trk>
<trk>
<name>hfcfc101</name>
<cmt>q</cmt>
<desc>Froidchapelle Sentier n°101 </desc>
<link href="https://chemins.be/froidchapelle/sentier/101"/><trkseg>
<trkpt lat="50.145972" lon="4.325569"><time>2026-05-02T23:25:21Z</time></trkpt>
<trkpt lat="50.145017" lon="4.326041"><time>2026-05-02T23:35:21Z</time></trkpt>
<trkpt lat="50.144505" lon="4.326041"><time>2026-05-02T23:45:21Z</time></trkpt>
</trkseg>
</trk>
<trk>
<name>hfcfc103</name>
<cmt>q</cmt>
<desc>Froidchapelle Sentier n°103 Rue Champ de Rance</desc>
<link href="https://chemins.be/froidchapelle/sentier/103"/><trkseg>
<trkpt lat="50.150364" lon="4.325119"><time>2026-05-02T23:25:21Z</time></trkpt>
<trkpt lat="50.149713" lon="4.322916"><time>2026-05-02T23:35:21Z</time></trkpt>
<trkpt lat="50.148797" lon="4.312030"><time>2026-05-02T23:45:21Z</time></trkpt>
<trkpt lat="50.148430" lon="4.310485"><time>2026-05-02T23:55:21Z</time></trkpt>
<trkpt lat="50.148604" lon="4.309398"><time>2026-05-03T00:05:21Z</time></trkpt>
<trkpt lat="50.148065" lon="4.307771"><time>2026-05-03T00:15:21Z</time></trkpt>
<trkpt lat="50.147956" lon="4.304180"><time>2026-05-03T00:25:21Z</time></trkpt>
<trkpt lat="50.147897" lon="4.302257"><time>2026-05-03T00:35:21Z</time></trkpt>
<trkpt lat="50.147993" lon="4.301695"><time>2026-05-03T00:45:21Z</time></trkpt>
<trkpt lat="50.147801" lon="4.298987"><time>2026-05-03T00:55:21Z</time></trkpt>
</trkseg>
</trk>
<trk>
<name>hfcfc104</name>
<cmt>q</cmt>
<desc>Froidchapelle Sentier n°104 </desc>
<link href="https://chemins.be/froidchapelle/sentier/104"/><trkseg>
<trkpt lat="50.149688" lon="4.322696"><time>2026-05-02T23:25:21Z</time></trkpt>
<trkpt lat="50.148616" lon="4.321066"><time>2026-05-02T23:35:21Z</time></trkpt>
<trkpt lat="50.148359" lon="4.319985"><time>2026-05-02T23:45:21Z</time></trkpt>
<trkpt lat="50.146562" lon="4.318519"><time>2026-05-02T23:55:21Z</time></trkpt>
<trkpt lat="50.145265" lon="4.317217"><time>2026-05-03T00:05:21Z</time></trkpt>
<trkpt lat="50.143574" lon="4.316052"><time>2026-05-03T00:15:21Z</time></trkpt>
<trkpt lat="50.141653" lon="4.315193"><time>2026-05-03T00:25:21Z</time></trkpt>
</trkseg>
</trk>
<trk>
<name>hfcfc105</name>
<cmt>q</cmt>
<desc>Froidchapelle Sentier n°105 </desc>
<link href="https://chemins.be/froidchapelle/sentier/105"/><trkseg>
<trkpt lat="50.148231" lon="4.319878"><time>2026-05-02T23:25:21Z</time></trkpt>
<trkpt lat="50.146664" lon="4.315853"><time>2026-05-02T23:35:21Z</time></trkpt>
<trkpt lat="50.146191" lon="4.313784"><time>2026-05-02T23:45:21Z</time></trkpt>
</trkseg>
</trk>
<trk>
<name>hfcfc106</name>
<cmt>q</cmt>
<desc>Froidchapelle Sentier n°106 </desc>
<link href="https://chemins.be/froidchapelle/sentier/106"/><trkseg>
<trkpt lat="50.149885" lon="4.323269"><time>2026-05-02T23:25:21Z</time></trkpt>
<trkpt lat="50.150307" lon="4.321015"><time>2026-05-02T23:35:21Z</time></trkpt>
</trkseg></trk>
<trk>
<name>hfcfc106</name>
<cmt>r</cmt>
<desc>Froidchapelle Sentier n°106 </desc>
<link href="https://chemins.be/froidchapelle/sentier/106"/><trkseg>
<trkpt lat="50.150307" lon="4.321015"><time>2026-05-02T23:35:21Z</time></trkpt>
<trkpt lat="50.150554" lon="4.319127"><time>2026-05-02T23:45:21Z</time></trkpt>
<trkpt lat="50.150335" lon="4.317332"><time>2026-05-02T23:55:21Z</time></trkpt>
</trkseg></trk>
<trk>
<name>hfcfc106</name>
<cmt>q</cmt>
<desc>Froidchapelle Sentier n°106 </desc>
<link href="https://chemins.be/froidchapelle/sentier/106"/><trkseg>
<trkpt lat="50.150335" lon="4.317332"><time>2026-05-02T23:55:21Z</time></trkpt>
<trkpt lat="50.150760" lon="4.316989"><time>2026-05-03T00:05:21Z</time></trkpt>
<trkpt lat="50.150948" lon="4.314757"><time>2026-05-03T00:15:21Z</time></trkpt>
<trkpt lat="50.151241" lon="4.312547"><time>2026-05-03T00:25:21Z</time></trkpt>
<trkpt lat="50.152093" lon="4.309886"><time>2026-05-03T00:35:21Z</time></trkpt>
<trkpt lat="50.152712" lon="4.306753"><time>2026-05-03T00:45:21Z</time></trkpt>
<trkpt lat="50.153258" lon="4.304922"><time>2026-05-03T00:55:21Z</time></trkpt>
</trkseg>
</trk>
<trk>
<name>hfcfc108</name>
<cmt>q</cmt>
<desc>Froidchapelle Sentier n°108 </desc>
<link href="https://chemins.be/froidchapelle/sentier/108"/><trkseg>
<trkpt lat="50.157329" lon="4.295429"><time>2026-05-02T23:25:21Z</time></trkpt>
<trkpt lat="50.157020" lon="4.296255"><time>2026-05-02T23:35:21Z</time></trkpt>
<trkpt lat="50.156803" lon="4.296448"><time>2026-05-02T23:45:21Z</time></trkpt>
<trkpt lat="50.156147" lon="4.295536"><time>2026-05-02T23:55:21Z</time></trkpt>
</trkseg>
</trk>
<trk>
<name>hfcfc109</name>
<cmt>q</cmt>
<desc>Froidchapelle Sentier n°109 </desc>
<link href="https://chemins.be/froidchapelle/sentier/109"/><trkseg>
<trkpt lat="50.158011" lon="4.296303"><time>2026-05-02T23:25:21Z</time></trkpt>
<trkpt lat="50.157002" lon="4.296303"><time>2026-05-02T23:35:21Z</time></trkpt>
</trkseg>
</trk>
<trk>
<name>hfcfc110</name>
<cmt>r</cmt>
<desc>Froidchapelle Sentier n°110 Rue du Bois le Comte</desc>
<link href="https://chemins.be/froidchapelle/sentier/110"/><trkseg>
<trkpt lat="50.122258" lon="4.360892"><time>2026-05-02T23:25:21Z</time></trkpt>
<trkpt lat="50.108386" lon="4.360595"><time>2026-05-02T23:35:21Z</time></trkpt>
<trkpt lat="50.099454" lon="4.360452"><time>2026-05-02T23:45:21Z</time></trkpt>
</trkseg></trk>
<trk>
<name>hfcfc110</name>
<cmt>q</cmt>
<desc>Froidchapelle Sentier n°110 Rue du Bois le Comte</desc>
<link href="https://chemins.be/froidchapelle/sentier/110"/><trkseg>
<trkpt lat="50.099454" lon="4.360452"><time>2026-05-02T23:45:21Z</time></trkpt>
<trkpt lat="50.093331" lon="4.360212"><time>2026-05-02T23:55:21Z</time></trkpt>
<trkpt lat="50.090988" lon="4.360174"><time>2026-05-03T00:05:21Z</time></trkpt>
<trkpt lat="50.087134" lon="4.360111"><time>2026-05-03T00:15:21Z</time></trkpt>
<trkpt lat="50.082769" lon="4.360040"><time>2026-05-03T00:25:21Z</time></trkpt>
</trkseg>
</trk>
<trk>
<name>hfcfc111</name>
<cmt>q</cmt>
<desc>Froidchapelle Sentier n°111 </desc>
<link href="https://chemins.be/froidchapelle/sentier/111"/><trkseg>
<trkpt lat="50.163212" lon="4.360605"><time>2026-05-02T23:25:21Z</time></trkpt>
<trkpt lat="50.162616" lon="4.359038"><time>2026-05-02T23:35:21Z</time></trkpt>
<trkpt lat="50.162245" lon="4.358996"><time>2026-05-02T23:45:21Z</time></trkpt>
<trkpt lat="50.162020" lon="4.357672"><time>2026-05-02T23:55:21Z</time></trkpt>
<trkpt lat="50.162300" lon="4.356428"><time>2026-05-03T00:05:21Z</time></trkpt>
<trkpt lat="50.162057" lon="4.354961"><time>2026-05-03T00:15:21Z</time></trkpt>
</trkseg>
</trk>
<trk>
<name>hfcfc112</name>
<cmt>q</cmt>
<desc>Froidchapelle Sentier n°112 </desc>
<link href="https://chemins.be/froidchapelle/sentier/112"/><trkseg>
<trkpt lat="50.160848" lon="4.350087"><time>2026-05-02T23:25:21Z</time></trkpt>
<trkpt lat="50.160211" lon="4.352659"><time>2026-05-02T23:35:21Z</time></trkpt>
</trkseg>
</trk>
<trk>
<name>hfcfc113</name>
<cmt>q</cmt>
<desc>Froidchapelle Sentier n°113 </desc>
<link href="https://chemins.be/froidchapelle/sentier/113"/><trkseg>
<trkpt lat="50.164079" lon="4.360306"><time>2026-05-02T23:25:21Z</time></trkpt>
<trkpt lat="50.164392" lon="4.359766"><time>2026-05-02T23:35:21Z</time></trkpt>
<trkpt lat="50.164238" lon="4.358487"><time>2026-05-02T23:45:21Z</time></trkpt>
<trkpt lat="50.163793" lon="4.357362"><time>2026-05-02T23:55:21Z</time></trkpt>
</trkseg>
</trk>
<trk>
<name>hfcfc115</name>
<cmt>q</cmt>
<desc>Froidchapelle Chemin n°115 </desc>
<link href="https://chemins.be/froidchapelle/chemin/115"/><trkseg>
<trkpt lat="50.141755" lon="4.339019"><time>2026-05-02T23:25:21Z</time></trkpt>
<trkpt lat="50.142083" lon="4.339216"><time>2026-05-02T23:35:21Z</time></trkpt>
<trkpt lat="50.142216" lon="4.339835"><time>2026-05-02T23:45:21Z</time></trkpt>
<trkpt lat="50.142484" lon="4.340074"><time>2026-05-02T23:55:21Z</time></trkpt>
</trkseg>
</trk>
<trk>
<name>hfcfc116</name>
<cmt>q</cmt>
<desc>Froidchapelle Chemin n°116 </desc>
<link href="https://chemins.be/froidchapelle/chemin/116"/><trkseg>
<trkpt lat="50.170335" lon="4.335152"><time>2026-05-02T23:25:21Z</time></trkpt>
<trkpt lat="50.170770" lon="4.334845"><time>2026-05-02T23:35:21Z</time></trkpt>
<trkpt lat="50.171178" lon="4.334237"><time>2026-05-02T23:45:21Z</time></trkpt>
</trkseg>
</trk>
<trk>
<name>hfcfc118</name>
<cmt>q</cmt>
<desc>Froidchapelle Sentier n°118 </desc>
<link href="https://chemins.be/froidchapelle/sentier/118"/><trkseg>
<trkpt lat="50.157466" lon="4.315335"><time>2026-05-02T23:25:21Z</time></trkpt>
<trkpt lat="50.156751" lon="4.313103"><time>2026-05-02T23:35:21Z</time></trkpt>
<trkpt lat="50.156274" lon="4.312359"><time>2026-05-02T23:45:21Z</time></trkpt>
<trkpt lat="50.154285" lon="4.312173"><time>2026-05-02T23:55:21Z</time></trkpt>
<trkpt lat="50.154031" lon="4.312709"><time>2026-05-03T00:05:21Z</time></trkpt>
<trkpt lat="50.154151" lon="4.313757"><time>2026-05-03T00:15:21Z</time></trkpt>
</trkseg>
</trk>
<trk>
<name>hfcfc119</name>
<cmt>q</cmt>
<desc>Froidchapelle Sentier n°119 </desc>
<link href="https://chemins.be/froidchapelle/sentier/119"/><trkseg>
<trkpt lat="50.148281" lon="4.324048"><time>2026-05-02T23:25:21Z</time></trkpt>
<trkpt lat="50.147589" lon="4.323190"><time>2026-05-02T23:35:21Z</time></trkpt>
<trkpt lat="50.147387" lon="4.322417"><time>2026-05-02T23:45:21Z</time></trkpt>
</trkseg>
</trk>
<trk>
<name>hfcfc12</name>
<cmt>v</cmt>
<desc>Froidchapelle Chemin n°12 Rue des Martyrs / Rue de Martinsart</desc>
<link href="https://chemins.be/froidchapelle/chemin/12"/><trkseg>
<trkpt lat="50.122294" lon="4.360883"><time>2026-05-02T23:25:21Z</time></trkpt>
<trkpt lat="50.127283" lon="4.360910"><time>2026-05-02T23:35:21Z</time></trkpt>
<trkpt lat="50.129567" lon="4.364238"><time>2026-05-02T23:45:21Z</time></trkpt>
<trkpt lat="50.132633" lon="4.365805"><time>2026-05-02T23:55:21Z</time></trkpt>
<trkpt lat="50.133784" lon="4.367763"><time>2026-05-03T00:05:21Z</time></trkpt>
<trkpt lat="50.135213" lon="4.368322"><time>2026-05-03T00:15:21Z</time></trkpt>
<trkpt lat="50.136049" lon="4.367329"><time>2026-05-03T00:25:21Z</time></trkpt>
<trkpt lat="50.136913" lon="4.366644"><time>2026-05-03T00:35:21Z</time></trkpt>
<trkpt lat="50.137524" lon="4.366462"><time>2026-05-03T00:45:21Z</time></trkpt>
<trkpt lat="50.137776" lon="4.366420"><time>2026-05-03T00:55:21Z</time></trkpt>
<trkpt lat="50.138216" lon="4.366714"><time>2026-05-03T01:05:21Z</time></trkpt>
<trkpt lat="50.138890" lon="4.366867"><time>2026-05-03T01:15:21Z</time></trkpt>
<trkpt lat="50.139331" lon="4.366895"><time>2026-05-03T01:25:21Z</time></trkpt>
<trkpt lat="50.140122" lon="4.366895"><time>2026-05-03T01:35:21Z</time></trkpt>
<trkpt lat="50.140805" lon="4.367721"><time>2026-05-03T01:45:21Z</time></trkpt>
<trkpt lat="50.141228" lon="4.368322"><time>2026-05-03T01:55:21Z</time></trkpt>
<trkpt lat="50.141669" lon="4.368854"><time>2026-05-03T02:05:21Z</time></trkpt>
<trkpt lat="50.144429" lon="4.369022"><time>2026-05-03T02:15:21Z</time></trkpt>
<trkpt lat="50.148502" lon="4.370304"><time>2026-05-03T02:25:21Z</time></trkpt>
<trkpt lat="50.149772" lon="4.370473"><time>2026-05-03T02:35:21Z</time></trkpt>
<trkpt lat="50.150104" lon="4.370282"><time>2026-05-03T02:45:21Z</time></trkpt>
</trkseg></trk>
<trk>
<name>hfcfc12</name>
<cmt>d</cmt>
<desc>Froidchapelle Chemin n°12 Rue des Martyrs / Rue de Martinsart</desc>
<link href="https://chemins.be/froidchapelle/chemin/12"/><trkseg>
<trkpt lat="50.150104" lon="4.370282"><time>2026-05-03T02:45:21Z</time></trkpt>
<trkpt lat="50.150765" lon="4.369904"><time>2026-05-03T02:55:21Z</time></trkpt>
<trkpt lat="50.151117" lon="4.369271"><time>2026-05-03T03:05:21Z</time></trkpt>
<trkpt lat="50.151177" lon="4.368495"><time>2026-05-03T03:15:21Z</time></trkpt>
</trkseg></trk>
<trk>
<name>hfcfc12</name>
<cmt>r</cmt>
<desc>Froidchapelle Chemin n°12 Rue des Martyrs / Rue de Martinsart</desc>
<link href="https://chemins.be/froidchapelle/chemin/12"/><trkseg>
<trkpt lat="50.151177" lon="4.368495"><time>2026-05-03T03:15:21Z</time></trkpt>
<trkpt lat="50.152034" lon="4.367394"><time>2026-05-03T03:25:21Z</time></trkpt>
<trkpt lat="50.153979" lon="4.367071"><time>2026-05-03T03:35:21Z</time></trkpt>
<trkpt lat="50.158222" lon="4.364639"><time>2026-05-03T03:45:21Z</time></trkpt>
<trkpt lat="50.160756" lon="4.363559"><time>2026-05-03T03:55:21Z</time></trkpt>
</trkseg></trk>
<trk>
<name>hfcfc12</name>
<cmt>q</cmt>
<desc>Froidchapelle Chemin n°12 Rue des Martyrs / Rue de Martinsart</desc>
<link href="https://chemins.be/froidchapelle/chemin/12"/><trkseg>
<trkpt lat="50.160756" lon="4.363559"><time>2026-05-03T03:55:21Z</time></trkpt>
<trkpt lat="50.162005" lon="4.361443"><time>2026-05-03T04:05:21Z</time></trkpt>
<trkpt lat="50.164901" lon="4.360127"><time>2026-05-03T04:15:21Z</time></trkpt>
<trkpt lat="50.166074" lon="4.360356"><time>2026-05-03T04:25:21Z</time></trkpt>
</trkseg>
</trk>
<trk>
<name>hfcfc121</name>
<cmt>q</cmt>
<desc>Froidchapelle Sentier n°121 </desc>
<link href="https://chemins.be/froidchapelle/sentier/121"/><trkseg>
<trkpt lat="50.141891" lon="4.337493"><time>2026-05-02T23:25:21Z</time></trkpt>
<trkpt lat="50.141848" lon="4.337167"><time>2026-05-02T23:35:21Z</time></trkpt>
<trkpt lat="50.141764" lon="4.336427"><time>2026-05-02T23:45:21Z</time></trkpt>
</trkseg>
</trk>
<trk>
<name>hfcfc122</name>
<cmt>v</cmt>
<desc>Froidchapelle Chemin n°122 </desc>
<link href="https://chemins.be/froidchapelle/chemin/122"/><trkseg>
<trkpt lat="50.135432" lon="4.342758"><time>2026-05-02T23:25:21Z</time></trkpt>
<trkpt lat="50.135195" lon="4.342489"><time>2026-05-02T23:35:21Z</time></trkpt>
</trkseg>
</trk>
<trk>
<name>hfcfc122bis</name>
<cmt>q</cmt>
<desc>Froidchapelle Sentier n°122bis </desc>
<link href="https://chemins.be/froidchapelle/sentier/122bis"/><trkseg>
<trkpt lat="50.134412" lon="4.314405"><time>2026-05-02T23:25:21Z</time></trkpt>
<trkpt lat="50.134584" lon="4.316008"><time>2026-05-02T23:35:21Z</time></trkpt>
<trkpt lat="50.134788" lon="4.317909"><time>2026-05-02T23:45:21Z</time></trkpt>
<trkpt lat="50.136402" lon="4.322530"><time>2026-05-02T23:55:21Z</time></trkpt>
<trkpt lat="50.139318" lon="4.325920"><time>2026-05-03T00:05:21Z</time></trkpt>
</trkseg>
</trk>
<trk>
<name>hfcfc123</name>
<cmt>q</cmt>
<desc>Froidchapelle Sentier n°123 </desc>
<link href="https://chemins.be/froidchapelle/sentier/123"/><trkseg>
<trkpt lat="50.162851" lon="4.354286"><time>2026-05-02T23:25:21Z</time></trkpt>
<trkpt lat="50.168217" lon="4.349838"><time>2026-05-02T23:35:21Z</time></trkpt>
<trkpt lat="50.168813" lon="4.350196"><time>2026-05-02T23:45:21Z</time></trkpt>
<trkpt lat="50.168996" lon="4.349810"><time>2026-05-02T23:55:21Z</time></trkpt>
<trkpt lat="50.171158" lon="4.349395"><time>2026-05-03T00:05:21Z</time></trkpt>
</trkseg>
</trk>
<trk>
<name>hfcfc124</name>
<cmt>q</cmt>
<desc>Froidchapelle Sentier n°124 </desc>
<link href="https://chemins.be/froidchapelle/sentier/124"/><trkseg>
<trkpt lat="50.164316" lon="4.350763"><time>2026-05-02T23:25:21Z</time></trkpt>
<trkpt lat="50.165772" lon="4.349109"><time>2026-05-02T23:35:21Z</time></trkpt>
<trkpt lat="50.166103" lon="4.348488"><time>2026-05-02T23:45:21Z</time></trkpt>
<trkpt lat="50.168127" lon="4.349766"><time>2026-05-02T23:55:21Z</time></trkpt>
</trkseg>
</trk>
<trk>
<name>hfcfc125</name>
<cmt>q</cmt>
<desc>Froidchapelle Sentier n°125 </desc>
<link href="https://chemins.be/froidchapelle/sentier/125"/><trkseg>
<trkpt lat="50.160780" lon="4.350087"><time>2026-05-02T23:25:21Z</time></trkpt>
<trkpt lat="50.160099" lon="4.349958"><time>2026-05-02T23:35:21Z</time></trkpt>
<trkpt lat="50.158924" lon="4.350978"><time>2026-05-02T23:45:21Z</time></trkpt>
</trkseg>
</trk>
<trk>
<name>hfcfc126</name>
<cmt>q</cmt>
<desc>Froidchapelle Sentier n°126 </desc>
<link href="https://chemins.be/froidchapelle/sentier/126"/><trkseg>
<trkpt lat="50.161454" lon="4.354545"><time>2026-05-02T23:25:21Z</time></trkpt>
<trkpt lat="50.159681" lon="4.355811"><time>2026-05-02T23:35:21Z</time></trkpt>
<trkpt lat="50.158568" lon="4.355650"><time>2026-05-02T23:45:21Z</time></trkpt>
<trkpt lat="50.158136" lon="4.356283"><time>2026-05-02T23:55:21Z</time></trkpt>
<trkpt lat="50.157929" lon="4.355983"><time>2026-05-03T00:05:21Z</time></trkpt>
<trkpt lat="50.157699" lon="4.355988"><time>2026-05-03T00:15:21Z</time></trkpt>
<trkpt lat="50.156525" lon="4.355677"><time>2026-05-03T00:25:21Z</time></trkpt>
<trkpt lat="50.155892" lon="4.355773"><time>2026-05-03T00:35:21Z</time></trkpt>
<trkpt lat="50.154499" lon="4.354810"><time>2026-05-03T00:45:21Z</time></trkpt>
</trkseg>
</trk>
<trk>
<name>hfcfc127</name>
<cmt>q</cmt>
<desc>Froidchapelle Sentier n°127 </desc>
<link href="https://chemins.be/froidchapelle/sentier/127"/><trkseg>
<trkpt lat="50.160554" lon="4.355212"><time>2026-05-02T23:25:21Z</time></trkpt>
<trkpt lat="50.161282" lon="4.356449"><time>2026-05-02T23:35:21Z</time></trkpt>
<trkpt lat="50.162194" lon="4.356728"><time>2026-05-02T23:45:21Z</time></trkpt>
</trkseg>
</trk>
<trk>
<name>hfcfc128</name>
<cmt>q</cmt>
<desc>Froidchapelle Sentier n°128 </desc>
<link href="https://chemins.be/froidchapelle/sentier/128"/><trkseg>
<trkpt lat="50.161415" lon="4.354525"><time>2026-05-02T23:25:21Z</time></trkpt>
<trkpt lat="50.161269" lon="4.356464"><time>2026-05-02T23:35:21Z</time></trkpt>
<trkpt lat="50.161415" lon="4.357737"><time>2026-05-02T23:45:21Z</time></trkpt>
<trkpt lat="50.161227" lon="4.359940"><time>2026-05-02T23:55:21Z</time></trkpt>
<trkpt lat="50.159867" lon="4.361771"><time>2026-05-03T00:05:21Z</time></trkpt>
<trkpt lat="50.159041" lon="4.362715"><time>2026-05-03T00:15:21Z</time></trkpt>
<trkpt lat="50.157982" lon="4.362876"><time>2026-05-03T00:25:21Z</time></trkpt>
<trkpt lat="50.157363" lon="4.362436"><time>2026-05-03T00:35:21Z</time></trkpt>
<trkpt lat="50.155851" lon="4.360365"><time>2026-05-03T00:45:21Z</time></trkpt>
<trkpt lat="50.155150" lon="4.359915"><time>2026-05-03T00:55:21Z</time></trkpt>
<trkpt lat="50.153363" lon="4.355140"><time>2026-05-03T01:05:21Z</time></trkpt>
</trkseg>
</trk>
<trk>
<name>hfcfc129</name>
<cmt>q</cmt>
<desc>Froidchapelle Sentier n°129 </desc>
<link href="https://chemins.be/froidchapelle/sentier/129"/><trkseg>
<trkpt lat="50.158503" lon="4.355685"><time>2026-05-02T23:25:21Z</time></trkpt>
<trkpt lat="50.159822" lon="4.353893"><time>2026-05-02T23:35:21Z</time></trkpt>
<trkpt lat="50.160183" lon="4.352718"><time>2026-05-02T23:45:21Z</time></trkpt>
</trkseg>
</trk>
<trk>
<name>hfcfc13</name>
<cmt>v</cmt>
<desc>Froidchapelle Chemin n°13 </desc>
<link href="https://chemins.be/froidchapelle/chemin/13"/><trkseg>
<trkpt lat="50.146390" lon="4.348026"><time>2026-05-02T23:25:21Z</time></trkpt>
<trkpt lat="50.144020" lon="4.349841"><time>2026-05-02T23:35:21Z</time></trkpt>
<trkpt lat="50.142824" lon="4.353167"><time>2026-05-02T23:45:21Z</time></trkpt>
<trkpt lat="50.140486" lon="4.361707"><time>2026-05-02T23:55:21Z</time></trkpt>
<trkpt lat="50.138987" lon="4.366793"><time>2026-05-03T00:05:21Z</time></trkpt>
</trkseg>
</trk>
<trk>
<name>hfcfc130</name>
<cmt>q</cmt>
<desc>Froidchapelle Sentier n°130 </desc>
<link href="https://chemins.be/froidchapelle/sentier/130"/><trkseg>
<trkpt lat="50.165746" lon="4.316168"><time>2026-05-02T23:25:21Z</time></trkpt>
<trkpt lat="50.166685" lon="4.317112"><time>2026-05-02T23:35:21Z</time></trkpt>
<trkpt lat="50.168000" lon="4.317727"><time>2026-05-02T23:45:21Z</time></trkpt>
<trkpt lat="50.168238" lon="4.317663"><time>2026-05-02T23:55:21Z</time></trkpt>
<trkpt lat="50.169274" lon="4.320230"><time>2026-05-03T00:05:21Z</time></trkpt>
<trkpt lat="50.170488" lon="4.322226"><time>2026-05-03T00:15:21Z</time></trkpt>
<trkpt lat="50.171187" lon="4.322469"><time>2026-05-03T00:25:21Z</time></trkpt>
</trkseg>
</trk>
<trk>
<name>hfcfc131</name>
<cmt>q</cmt>
<desc>Froidchapelle Sentier n°131 </desc>
<link href="https://chemins.be/froidchapelle/sentier/131"/><trkseg>
<trkpt lat="50.170702" lon="4.328091"><time>2026-05-02T23:25:21Z</time></trkpt>
<trkpt lat="50.170826" lon="4.327362"><time>2026-05-02T23:35:21Z</time></trkpt>
<trkpt lat="50.170589" lon="4.322262"><time>2026-05-02T23:45:21Z</time></trkpt>
</trkseg>
</trk>
<trk>
<name>hfcfc132</name>
<cmt>q</cmt>
<desc>Froidchapelle Sentier n°132 Rue du Bosquet</desc>
<link href="https://chemins.be/froidchapelle/sentier/132"/><trkseg>
<trkpt lat="50.166747" lon="4.324000"><time>2026-05-02T23:25:21Z</time></trkpt>
<trkpt lat="50.166921" lon="4.324129"><time>2026-05-02T23:35:21Z</time></trkpt>
<trkpt lat="50.167675" lon="4.327498"><time>2026-05-02T23:45:21Z</time></trkpt>
<trkpt lat="50.173069" lon="4.337883"><time>2026-05-02T23:55:21Z</time></trkpt>
</trkseg>
</trk>
<trk>
<name>hfcfc133</name>
<cmt>q</cmt>
<desc>Froidchapelle Sentier n°133 </desc>
<link href="https://chemins.be/froidchapelle/sentier/133"/><trkseg>
<trkpt lat="50.170380" lon="4.335203"><time>2026-05-02T23:25:21Z</time></trkpt>
<trkpt lat="50.171387" lon="4.336154"><time>2026-05-02T23:35:21Z</time></trkpt>
<trkpt lat="50.171666" lon="4.336588"><time>2026-05-02T23:45:21Z</time></trkpt>
<trkpt lat="50.172250" lon="4.336826"><time>2026-05-02T23:55:21Z</time></trkpt>
</trkseg></trk>
<trk>
<name>hfcfc133</name>
<cmt>v</cmt>
<desc>Froidchapelle Sentier n°133 </desc>
<link href="https://chemins.be/froidchapelle/sentier/133"/><trkseg>
<trkpt lat="50.172250" lon="4.336826"><time>2026-05-02T23:55:21Z</time></trkpt>
<trkpt lat="50.173905" lon="4.338925"><time>2026-05-03T00:05:21Z</time></trkpt>
<trkpt lat="50.174580" lon="4.339470"><time>2026-05-03T00:15:21Z</time></trkpt>
</trkseg></trk>
<trk>
<name>hfcfc133</name>
<cmt>q</cmt>
<desc>Froidchapelle Sentier n°133 </desc>
<link href="https://chemins.be/froidchapelle/sentier/133"/><trkseg>
<trkpt lat="50.174580" lon="4.339470"><time>2026-05-03T00:15:21Z</time></trkpt>
<trkpt lat="50.176414" lon="4.340505"><time>2026-05-03T00:25:21Z</time></trkpt>
<trkpt lat="50.176863" lon="4.340421"><time>2026-05-03T00:35:21Z</time></trkpt>
<trkpt lat="50.176989" lon="4.341317"><time>2026-05-03T00:45:21Z</time></trkpt>
</trkseg>
</trk>
<trk>
<name>hfcfc134</name>
<cmt>q</cmt>
<desc>Froidchapelle Sentier n°134 Rue du Bois Brûlé</desc>
<link href="https://chemins.be/froidchapelle/sentier/134"/><trkseg>
<trkpt lat="50.168577" lon="4.327497"><time>2026-05-02T23:25:21Z</time></trkpt>
<trkpt lat="50.168848" lon="4.327726"><time>2026-05-02T23:35:21Z</time></trkpt>
<trkpt lat="50.170236" lon="4.327998"><time>2026-05-02T23:45:21Z</time></trkpt>
<trkpt lat="50.170369" lon="4.327934"><time>2026-05-02T23:55:21Z</time></trkpt>
</trkseg>
</trk>
<trk>
<name>hfcfc135</name>
<cmt>q</cmt>
<desc>Froidchapelle Sentier n°135 </desc>
<link href="https://chemins.be/froidchapelle/sentier/135"/><trkseg>
<trkpt lat="50.166707" lon="4.312445"><time>2026-05-02T23:25:21Z</time></trkpt>
<trkpt lat="50.166219" lon="4.311007"><time>2026-05-02T23:35:21Z</time></trkpt>
<trkpt lat="50.165986" lon="4.310739"><time>2026-05-02T23:45:21Z</time></trkpt>
<trkpt lat="50.165656" lon="4.310152"><time>2026-05-02T23:55:21Z</time></trkpt>
<trkpt lat="50.164872" lon="4.308754"><time>2026-05-03T00:05:21Z</time></trkpt>
</trkseg>
</trk>
<trk>
<name>hfcfc136</name>
<cmt>q</cmt>
<desc>Froidchapelle Sentier n°136 </desc>
<link href="https://chemins.be/froidchapelle/sentier/136"/><trkseg>
<trkpt lat="50.165573" lon="4.315438"><time>2026-05-02T23:25:21Z</time></trkpt>
<trkpt lat="50.166790" lon="4.314805"><time>2026-05-02T23:35:21Z</time></trkpt>
<trkpt lat="50.166956" lon="4.314070"><time>2026-05-02T23:45:21Z</time></trkpt>
<trkpt lat="50.167230" lon="4.312863"><time>2026-05-02T23:55:21Z</time></trkpt>
<trkpt lat="50.167044" lon="4.312134"><time>2026-05-03T00:05:21Z</time></trkpt>
</trkseg>
</trk>
<trk>
<name>hfcfc137</name>
<cmt>q</cmt>
<desc>Froidchapelle Sentier n°137 </desc>
<link href="https://chemins.be/froidchapelle/sentier/137"/><trkseg>
<trkpt lat="50.168289" lon="4.319808"><time>2026-05-02T23:25:21Z</time></trkpt>
<trkpt lat="50.168083" lon="4.322915"><time>2026-05-02T23:35:21Z</time></trkpt>
</trkseg>
</trk>
<trk>
<name>hfcfc138</name>
<cmt>q</cmt>
<desc>Froidchapelle Sentier n°138 </desc>
<link href="https://chemins.be/froidchapelle/sentier/138"/><trkseg>
<trkpt lat="50.163460" lon="4.319429"><time>2026-05-02T23:25:21Z</time></trkpt>
<trkpt lat="50.163635" lon="4.318448"><time>2026-05-02T23:35:21Z</time></trkpt>
<trkpt lat="50.163573" lon="4.316597"><time>2026-05-02T23:45:21Z</time></trkpt>
<trkpt lat="50.163323" lon="4.315969"><time>2026-05-02T23:55:21Z</time></trkpt>
</trkseg>
</trk>
<trk>
<name>hfcfc139</name>
<cmt>q</cmt>
<desc>Froidchapelle Sentier n°139 </desc>
<link href="https://chemins.be/froidchapelle/sentier/139"/><trkseg>
<trkpt lat="50.166133" lon="4.301096"><time>2026-05-02T23:25:21Z</time></trkpt>
<trkpt lat="50.167054" lon="4.301532"><time>2026-05-02T23:35:21Z</time></trkpt>
<trkpt lat="50.168268" lon="4.302619"><time>2026-05-02T23:45:21Z</time></trkpt>
<trkpt lat="50.168543" lon="4.303063"><time>2026-05-02T23:55:21Z</time></trkpt>
<trkpt lat="50.168859" lon="4.303320"><time>2026-05-03T00:05:21Z</time></trkpt>
</trkseg>
</trk>
<trk>
<name>hfcfc140</name>
<cmt>q</cmt>
<desc>Froidchapelle Sentier n°140 </desc>
<link href="https://chemins.be/froidchapelle/sentier/140"/><trkseg>
<trkpt lat="50.161243" lon="4.290449"><time>2026-05-02T23:25:21Z</time></trkpt>
<trkpt lat="50.160506" lon="4.290397"><time>2026-05-02T23:35:21Z</time></trkpt>
<trkpt lat="50.156624" lon="4.293367"><time>2026-05-02T23:45:21Z</time></trkpt>
<trkpt lat="50.155667" lon="4.293281"><time>2026-05-02T23:55:21Z</time></trkpt>
<trkpt lat="50.155997" lon="4.294105"><time>2026-05-03T00:05:21Z</time></trkpt>
<trkpt lat="50.155117" lon="4.297349"><time>2026-05-03T00:15:21Z</time></trkpt>
<trkpt lat="50.153093" lon="4.304765"><time>2026-05-03T00:25:21Z</time></trkpt>
</trkseg>
</trk>
<trk>
<name>hfcfc141</name>
<cmt>q</cmt>
<desc>Froidchapelle Sentier n°141 </desc>
<link href="https://chemins.be/froidchapelle/sentier/141"/><trkseg>
<trkpt lat="50.161949" lon="4.288917"><time>2026-05-02T23:25:21Z</time></trkpt>
<trkpt lat="50.157352" lon="4.287646"><time>2026-05-02T23:35:21Z</time></trkpt>
<trkpt lat="50.155468" lon="4.287524"><time>2026-05-02T23:45:21Z</time></trkpt>
<trkpt lat="50.153868" lon="4.286906"><time>2026-05-02T23:55:21Z</time></trkpt>
</trkseg>
</trk>
<trk>
<name>hfcfc142</name>
<cmt>q</cmt>
<desc>Froidchapelle Sentier n°142 </desc>
<link href="https://chemins.be/froidchapelle/sentier/142"/><trkseg>
<trkpt lat="50.155985" lon="4.293257"><time>2026-05-02T23:25:21Z</time></trkpt>
<trkpt lat="50.156903" lon="4.290657"><time>2026-05-02T23:35:21Z</time></trkpt>
<trkpt lat="50.157365" lon="4.287653"><time>2026-05-02T23:45:21Z</time></trkpt>
</trkseg>
</trk>
<trk>
<name>hfcfc144</name>
<cmt>q</cmt>
<desc>Froidchapelle Sentier n°144 </desc>
<link href="https://chemins.be/froidchapelle/sentier/144"/><trkseg>
<trkpt lat="50.149100" lon="4.303642"><time>2026-05-02T23:25:21Z</time></trkpt>
<trkpt lat="50.149430" lon="4.302891"><time>2026-05-02T23:35:21Z</time></trkpt>
<trkpt lat="50.149760" lon="4.302269"><time>2026-05-02T23:45:21Z</time></trkpt>
<trkpt lat="50.150351" lon="4.299300"><time>2026-05-02T23:55:21Z</time></trkpt>
<trkpt lat="50.150590" lon="4.297541"><time>2026-05-03T00:05:21Z</time></trkpt>
<trkpt lat="50.153049" lon="4.293968"><time>2026-05-03T00:15:21Z</time></trkpt>
<trkpt lat="50.153698" lon="4.292766"><time>2026-05-03T00:25:21Z</time></trkpt>
<trkpt lat="50.154160" lon="4.291770"><time>2026-05-03T00:35:21Z</time></trkpt>
<trkpt lat="50.154217" lon="4.291379"><time>2026-05-03T00:45:21Z</time></trkpt>
<trkpt lat="50.153866" lon="4.290070"><time>2026-05-03T00:55:21Z</time></trkpt>
</trkseg></trk>
<trk>
<name>hfcfc144</name>
<cmt>v</cmt>
<desc>Froidchapelle Sentier n°144 </desc>
<link href="https://chemins.be/froidchapelle/sentier/144"/><trkseg>
<trkpt lat="50.153866" lon="4.290070"><time>2026-05-03T00:55:21Z</time></trkpt>
<trkpt lat="50.153636" lon="4.289008"><time>2026-05-03T01:05:21Z</time></trkpt>
</trkseg></trk>
<trk>
<name>hfcfc144</name>
<cmt>q</cmt>
<desc>Froidchapelle Sentier n°144 </desc>
<link href="https://chemins.be/froidchapelle/sentier/144"/><trkseg>
<trkpt lat="50.153636" lon="4.289008"><time>2026-05-03T01:05:21Z</time></trkpt>
<trkpt lat="50.153774" lon="4.288193"><time>2026-05-03T01:15:21Z</time></trkpt>
<trkpt lat="50.153472" lon="4.287378"><time>2026-05-03T01:25:21Z</time></trkpt>
</trkseg>
</trk>
<trk>
<name>hfcfc145</name>
<cmt>v</cmt>
<desc>Froidchapelle Sentier n°145 </desc>
<link href="https://chemins.be/froidchapelle/sentier/145"/><trkseg>
<trkpt lat="50.152474" lon="4.321516"><time>2026-05-02T23:25:21Z</time></trkpt>
<trkpt lat="50.152089" lon="4.318991"><time>2026-05-02T23:35:21Z</time></trkpt>
<trkpt lat="50.151073" lon="4.317122"><time>2026-05-02T23:45:21Z</time></trkpt>
<trkpt lat="50.150230" lon="4.316964"><time>2026-05-02T23:55:21Z</time></trkpt>
</trkseg>
</trk>
<trk>
<name>hfcfc146</name>
<cmt>q</cmt>
<desc>Froidchapelle Sentier n°146 </desc>
<link href="https://chemins.be/froidchapelle/sentier/146"/><trkseg>
<trkpt lat="50.157469" lon="4.322603"><time>2026-05-02T23:25:21Z</time></trkpt>
<trkpt lat="50.157079" lon="4.320644"><time>2026-05-02T23:35:21Z</time></trkpt>
<trkpt lat="50.157299" lon="4.318898"><time>2026-05-02T23:45:21Z</time></trkpt>
<trkpt lat="50.157189" lon="4.317675"><time>2026-05-02T23:55:21Z</time></trkpt>
<trkpt lat="50.156800" lon="4.316624"><time>2026-05-03T00:05:21Z</time></trkpt>
</trkseg>
</trk>
<trk>
<name>hfcfc147</name>
<cmt>q</cmt>
<desc>Froidchapelle Sentier n°147 </desc>
<link href="https://chemins.be/froidchapelle/sentier/147"/><trkseg>
<trkpt lat="50.161685" lon="4.330822"><time>2026-05-02T23:25:21Z</time></trkpt>
<trkpt lat="50.161428" lon="4.330936"><time>2026-05-02T23:35:21Z</time></trkpt>
<trkpt lat="50.160136" lon="4.329148"><time>2026-05-02T23:45:21Z</time></trkpt>
<trkpt lat="50.159600" lon="4.326809"><time>2026-05-02T23:55:21Z</time></trkpt>
<trkpt lat="50.158559" lon="4.325328"><time>2026-05-03T00:05:21Z</time></trkpt>
<trkpt lat="50.158404" lon="4.324706"><time>2026-05-03T00:15:21Z</time></trkpt>
</trkseg>
</trk>
<trk>
<name>hfcfc148</name>
<cmt>q</cmt>
<desc>Froidchapelle Sentier n°148 </desc>
<link href="https://chemins.be/froidchapelle/sentier/148"/><trkseg>
<trkpt lat="50.159486" lon="4.343733"><time>2026-05-02T23:25:21Z</time></trkpt>
<trkpt lat="50.159444" lon="4.345546"><time>2026-05-02T23:35:21Z</time></trkpt>
<trkpt lat="50.159884" lon="4.349205"><time>2026-05-02T23:45:21Z</time></trkpt>
<trkpt lat="50.160125" lon="4.349999"><time>2026-05-02T23:55:21Z</time></trkpt>
</trkseg>
</trk>
<trk>
<name>hfcfc149</name>
<cmt>q</cmt>
<desc>Froidchapelle Sentier n°149 </desc>
<link href="https://chemins.be/froidchapelle/sentier/149"/><trkseg>
<trkpt lat="50.154426" lon="4.343604"><time>2026-05-02T23:25:21Z</time></trkpt>
<trkpt lat="50.155233" lon="4.342764"><time>2026-05-02T23:35:21Z</time></trkpt>
<trkpt lat="50.155283" lon="4.342885"><time>2026-05-02T23:45:21Z</time></trkpt>
<trkpt lat="50.156605" lon="4.341980"><time>2026-05-02T23:55:21Z</time></trkpt>
<trkpt lat="50.158301" lon="4.340428"><time>2026-05-03T00:05:21Z</time></trkpt>
</trkseg>
</trk>
<trk>
<name>hfcfc15</name>
<cmt>v</cmt>
<desc>Froidchapelle Chemin n°15 Rue de Sautizelle</desc>
<link href="https://chemins.be/froidchapelle/chemin/15"/><trkseg>
<trkpt lat="50.163081" lon="4.316202"><time>2026-05-02T23:25:21Z</time></trkpt>
<trkpt lat="50.162767" lon="4.316286"><time>2026-05-02T23:35:21Z</time></trkpt>
<trkpt lat="50.161922" lon="4.316287"><time>2026-05-02T23:45:21Z</time></trkpt>
<trkpt lat="50.161472" lon="4.316176"><time>2026-05-02T23:55:21Z</time></trkpt>
<trkpt lat="50.161104" lon="4.316400"><time>2026-05-03T00:05:21Z</time></trkpt>
<trkpt lat="50.160286" lon="4.317241"><time>2026-05-03T00:15:21Z</time></trkpt>
<trkpt lat="50.159801" lon="4.318417"><time>2026-05-03T00:25:21Z</time></trkpt>
<trkpt lat="50.159486" lon="4.318683"><time>2026-05-03T00:35:21Z</time></trkpt>
<trkpt lat="50.158981" lon="4.319456"><time>2026-05-03T00:45:21Z</time></trkpt>
</trkseg></trk>
<trk>
<name>hfcfc15</name>
<cmt>d</cmt>
<desc>Froidchapelle Chemin n°15 Rue de Sautizelle</desc>
<link href="https://chemins.be/froidchapelle/chemin/15"/><trkseg>
<trkpt lat="50.158981" lon="4.319456"><time>2026-05-03T00:45:21Z</time></trkpt>
<trkpt lat="50.158028" lon="4.319771"><time>2026-05-03T00:55:21Z</time></trkpt>
<trkpt lat="50.157712" lon="4.320902"><time>2026-05-03T01:05:21Z</time></trkpt>
<trkpt lat="50.157661" lon="4.321688"><time>2026-05-03T01:15:21Z</time></trkpt>
<trkpt lat="50.157504" lon="4.322869"><time>2026-05-03T01:25:21Z</time></trkpt>
<trkpt lat="50.157341" lon="4.323139"><time>2026-05-03T01:35:21Z</time></trkpt>
</trkseg>
</trk>
<trk>
<name>hfcfc150</name>
<cmt>q</cmt>
<desc>Froidchapelle Sentier n°150 </desc>
<link href="https://chemins.be/froidchapelle/sentier/150"/><trkseg>
<trkpt lat="50.157320" lon="4.336473"><time>2026-05-02T23:25:21Z</time></trkpt>
<trkpt lat="50.156715" lon="4.335769"><time>2026-05-02T23:35:21Z</time></trkpt>
<trkpt lat="50.155395" lon="4.335035"><time>2026-05-02T23:45:21Z</time></trkpt>
</trkseg>
</trk>
<trk>
<name>hfcfc151</name>
<cmt>q</cmt>
<desc>Froidchapelle Sentier n°151 Rue du Troupeau</desc>
<link href="https://chemins.be/froidchapelle/sentier/151"/><trkseg>
<trkpt lat="50.155293" lon="4.349253"><time>2026-05-02T23:25:21Z</time></trkpt>
<trkpt lat="50.155076" lon="4.349307"><time>2026-05-02T23:35:21Z</time></trkpt>
<trkpt lat="50.154543" lon="4.351586"><time>2026-05-02T23:45:21Z</time></trkpt>
</trkseg></trk>
<trk>
<name>hfcfc151</name>
<cmt>r</cmt>
<desc>Froidchapelle Sentier n°151 Rue du Troupeau</desc>
<link href="https://chemins.be/froidchapelle/sentier/151"/><trkseg>
<trkpt lat="50.154543" lon="4.351586"><time>2026-05-02T23:45:21Z</time></trkpt>
<trkpt lat="50.154237" lon="4.351798"><time>2026-05-02T23:55:21Z</time></trkpt>
<trkpt lat="50.153657" lon="4.352198"><time>2026-05-03T00:05:21Z</time></trkpt>
<trkpt lat="50.153248" lon="4.353126"><time>2026-05-03T00:15:21Z</time></trkpt>
</trkseg>
</trk>
<trk>
<name>hfcfc152</name>
<cmt>r</cmt>
<desc>Froidchapelle Sentier n°152 Rue du Troupeau</desc>
<link href="https://chemins.be/froidchapelle/sentier/152"/><trkseg>
<trkpt lat="50.155932" lon="4.351168"><time>2026-05-02T23:25:21Z</time></trkpt>
<trkpt lat="50.154585" lon="4.351538"><time>2026-05-02T23:35:21Z</time></trkpt>
</trkseg>
</trk>
<trk>
<name>hfcfc153</name>
<cmt>q</cmt>
<desc>Froidchapelle Sentier n°153 </desc>
<link href="https://chemins.be/froidchapelle/sentier/153"/><trkseg>
<trkpt lat="50.157643" lon="4.356046"><time>2026-05-02T23:25:21Z</time></trkpt>
<trkpt lat="50.156605" lon="4.354537"><time>2026-05-02T23:35:21Z</time></trkpt>
<trkpt lat="50.155789" lon="4.352852"><time>2026-05-02T23:45:21Z</time></trkpt>
<trkpt lat="50.155448" lon="4.351043"><time>2026-05-02T23:55:21Z</time></trkpt>
</trkseg>
</trk>
<trk>
<name>hfcfc154</name>
<cmt>q</cmt>
<desc>Froidchapelle Sentier n°154 </desc>
<link href="https://chemins.be/froidchapelle/sentier/154"/><trkseg>
<trkpt lat="50.157636" lon="4.355921"><time>2026-05-02T23:25:21Z</time></trkpt>
<trkpt lat="50.156465" lon="4.356844"><time>2026-05-02T23:35:21Z</time></trkpt>
<trkpt lat="50.156100" lon="4.359847"><time>2026-05-02T23:45:21Z</time></trkpt>
<trkpt lat="50.155275" lon="4.361642"><time>2026-05-02T23:55:21Z</time></trkpt>
</trkseg>
</trk>
<trk>
<name>hfcfc155</name>
<cmt>q</cmt>
<desc>Froidchapelle Sentier n°155 Rue du Champ du Four</desc>
<link href="https://chemins.be/froidchapelle/sentier/155"/><trkseg>
<trkpt lat="50.158917" lon="4.358878"><time>2026-05-02T23:25:21Z</time></trkpt>
<trkpt lat="50.158960" lon="4.358889"><time>2026-05-02T23:35:21Z</time></trkpt>
<trkpt lat="50.159735" lon="4.360967"><time>2026-05-02T23:45:21Z</time></trkpt>
<trkpt lat="50.159726" lon="4.361160"><time>2026-05-02T23:55:21Z</time></trkpt>
</trkseg>
</trk>
<trk>
<name>hfcfc156</name>
<cmt>q</cmt>
<desc>Froidchapelle Sentier n°156 </desc>
<link href="https://chemins.be/froidchapelle/sentier/156"/><trkseg>
<trkpt lat="50.152587" lon="4.353363"><time>2026-05-02T23:25:21Z</time></trkpt>
<trkpt lat="50.152014" lon="4.351641"><time>2026-05-02T23:35:21Z</time></trkpt>
<trkpt lat="50.151398" lon="4.350923"><time>2026-05-02T23:45:21Z</time></trkpt>
<trkpt lat="50.151267" lon="4.349128"><time>2026-05-02T23:55:21Z</time></trkpt>
<trkpt lat="50.151540" lon="4.347350"><time>2026-05-03T00:05:21Z</time></trkpt>
<trkpt lat="50.152013" lon="4.346221"><time>2026-05-03T00:15:21Z</time></trkpt>
<trkpt lat="50.151965" lon="4.345126"><time>2026-05-03T00:25:21Z</time></trkpt>
<trkpt lat="50.151781" lon="4.344676"><time>2026-05-03T00:35:21Z</time></trkpt>
<trkpt lat="50.151626" lon="4.343399"><time>2026-05-03T00:45:21Z</time></trkpt>
</trkseg>
</trk>
<trk>
<name>hfcfc157</name>
<cmt>q</cmt>
<desc>Froidchapelle Sentier n°157 </desc>
<link href="https://chemins.be/froidchapelle/sentier/157"/><trkseg>
<trkpt lat="50.148061" lon="4.307795"><time>2026-05-02T23:25:21Z</time></trkpt>
<trkpt lat="50.147313" lon="4.306945"><time>2026-05-02T23:35:21Z</time></trkpt>
<trkpt lat="50.146901" lon="4.305615"><time>2026-05-02T23:45:21Z</time></trkpt>
<trkpt lat="50.145839" lon="4.303066"><time>2026-05-02T23:55:21Z</time></trkpt>
<trkpt lat="50.145735" lon="4.302963"><time>2026-05-03T00:05:21Z</time></trkpt>
<trkpt lat="50.145608" lon="4.302113"><time>2026-05-03T00:15:21Z</time></trkpt>
<trkpt lat="50.144882" lon="4.299633"><time>2026-05-03T00:25:21Z</time></trkpt>
<trkpt lat="50.144959" lon="4.299100"><time>2026-05-03T00:35:21Z</time></trkpt>
</trkseg>
</trk>
<trk>
<name>hfcfc158</name>
<cmt>q</cmt>
<desc>Froidchapelle Sentier n°158 </desc>
<link href="https://chemins.be/froidchapelle/sentier/158"/><trkseg>
<trkpt lat="50.147614" lon="4.304594"><time>2026-05-02T23:25:21Z</time></trkpt>
<trkpt lat="50.146239" lon="4.306928"><time>2026-05-02T23:35:21Z</time></trkpt>
<trkpt lat="50.144655" lon="4.307572"><time>2026-05-02T23:45:21Z</time></trkpt>
</trkseg>
</trk>
<trk>
<name>hfcfc159</name>
<cmt>q</cmt>
<desc>Froidchapelle Sentier n°159 </desc>
<link href="https://chemins.be/froidchapelle/sentier/159"/><trkseg>
<trkpt lat="50.148396" lon="4.308820"><time>2026-05-02T23:25:21Z</time></trkpt>
<trkpt lat="50.147355" lon="4.308606"><time>2026-05-02T23:35:21Z</time></trkpt>
</trkseg>
</trk>
<trk>
<name>hfcfc16</name>
<cmt>s</cmt>
<desc>Froidchapelle Chemin n°16 </desc>
<link href="https://chemins.be/froidchapelle/chemin/16"/><trkseg>
<trkpt lat="50.099431" lon="4.360483"><time>2026-05-02T23:25:21Z</time></trkpt>
<trkpt lat="50.097871" lon="4.360247"><time>2026-05-02T23:35:21Z</time></trkpt>
<trkpt lat="50.097104" lon="4.361084"><time>2026-05-02T23:45:21Z</time></trkpt>
<trkpt lat="50.094943" lon="4.365211"><time>2026-05-02T23:55:21Z</time></trkpt>
<trkpt lat="50.094246" lon="4.365039"><time>2026-05-03T00:05:21Z</time></trkpt>
<trkpt lat="50.092016" lon="4.365447"><time>2026-05-03T00:15:21Z</time></trkpt>
<trkpt lat="50.090295" lon="4.367128"><time>2026-05-03T00:25:21Z</time></trkpt>
<trkpt lat="50.089451" lon="4.367042"><time>2026-05-03T00:35:21Z</time></trkpt>
<trkpt lat="50.086665" lon="4.367679"><time>2026-05-03T00:45:21Z</time></trkpt>
<trkpt lat="50.085674" lon="4.367293"><time>2026-05-03T00:55:21Z</time></trkpt>
</trkseg>
</trk>
<trk>
<name>hfcfc160</name>
<cmt>q</cmt>
<desc>Froidchapelle Sentier n°160 </desc>
<link href="https://chemins.be/froidchapelle/sentier/160"/><trkseg>
<trkpt lat="50.148373" lon="4.310551"><time>2026-05-02T23:25:21Z</time></trkpt>
<trkpt lat="50.147929" lon="4.312320"><time>2026-05-02T23:35:21Z</time></trkpt>
</trkseg></trk>
<trk>
<name>hfcfc160</name>
<cmt>v</cmt>
<desc>Froidchapelle Sentier n°160 </desc>
<link href="https://chemins.be/froidchapelle/sentier/160"/><trkseg>
<trkpt lat="50.147929" lon="4.312320"><time>2026-05-02T23:35:21Z</time></trkpt>
<trkpt lat="50.147287" lon="4.312919"><time>2026-05-02T23:45:21Z</time></trkpt>
<trkpt lat="50.146691" lon="4.315901"><time>2026-05-02T23:55:21Z</time></trkpt>
</trkseg>
</trk>
<trk>
<name>hfcfc161</name>
<cmt>q</cmt>
<desc>Froidchapelle Sentier n°161 </desc>
<link href="https://chemins.be/froidchapelle/sentier/161"/><trkseg>
<trkpt lat="50.141304" lon="4.337665"><time>2026-05-02T23:25:21Z</time></trkpt>
<trkpt lat="50.141194" lon="4.336807"><time>2026-05-02T23:35:21Z</time></trkpt>
<trkpt lat="50.141927" lon="4.335934"><time>2026-05-02T23:45:21Z</time></trkpt>
<trkpt lat="50.144595" lon="4.334332"><time>2026-05-02T23:55:21Z</time></trkpt>
<trkpt lat="50.145439" lon="4.333001"><time>2026-05-03T00:05:21Z</time></trkpt>
<trkpt lat="50.145570" lon="4.330753"><time>2026-05-03T00:15:21Z</time></trkpt>
<trkpt lat="50.145335" lon="4.325280"><time>2026-05-03T00:25:21Z</time></trkpt>
<trkpt lat="50.145497" lon="4.322616"><time>2026-05-03T00:35:21Z</time></trkpt>
<trkpt lat="50.145818" lon="4.322301"><time>2026-05-03T00:45:21Z</time></trkpt>
<trkpt lat="50.146999" lon="4.316611"><time>2026-05-03T00:55:21Z</time></trkpt>
</trkseg>
</trk>
<trk>
<name>hfcfc162</name>
<cmt>q</cmt>
<desc>Froidchapelle Sentier n°162 </desc>
<link href="https://chemins.be/froidchapelle/sentier/162"/><trkseg>
<trkpt lat="50.152696" lon="4.325265"><time>2026-05-02T23:25:21Z</time></trkpt>
<trkpt lat="50.151209" lon="4.325029"><time>2026-05-02T23:35:21Z</time></trkpt>
<trkpt lat="50.150773" lon="4.325058"><time>2026-05-02T23:45:21Z</time></trkpt>
<trkpt lat="50.150412" lon="4.324849"><time>2026-05-02T23:55:21Z</time></trkpt>
<trkpt lat="50.150353" lon="4.324942"><time>2026-05-03T00:05:21Z</time></trkpt>
<trkpt lat="50.150115" lon="4.324620"><time>2026-05-03T00:15:21Z</time></trkpt>
<trkpt lat="50.149413" lon="4.324399"><time>2026-05-03T00:25:21Z</time></trkpt>
<trkpt lat="50.148675" lon="4.324713"><time>2026-05-03T00:35:21Z</time></trkpt>
</trkseg>
</trk>
<trk>
<name>hfcfc163</name>
<cmt>q</cmt>
<desc>Froidchapelle Sentier n°163 </desc>
<link href="https://chemins.be/froidchapelle/sentier/163"/><trkseg>
<trkpt lat="50.150844" lon="4.323799"><time>2026-05-02T23:25:21Z</time></trkpt>
<trkpt lat="50.151225" lon="4.322808"><time>2026-05-02T23:35:21Z</time></trkpt>
</trkseg>
</trk>
<trk>
<name>hfcfc164</name>
<cmt>r</cmt>
<desc>Froidchapelle Sentier n°164 Rue des Arzières</desc>
<link href="https://chemins.be/froidchapelle/sentier/164"/><trkseg>
<trkpt lat="50.152865" lon="4.327900"><time>2026-05-02T23:25:21Z</time></trkpt>
<trkpt lat="50.152834" lon="4.327469"><time>2026-05-02T23:35:21Z</time></trkpt>
<trkpt lat="50.152831" lon="4.327024"><time>2026-05-02T23:45:21Z</time></trkpt>
<trkpt lat="50.152799" lon="4.326657"><time>2026-05-02T23:55:21Z</time></trkpt>
</trkseg></trk>
<trk>
<name>hfcfc164</name>
<cmt>q</cmt>
<desc>Froidchapelle Sentier n°164 Rue des Arzières</desc>
<link href="https://chemins.be/froidchapelle/sentier/164"/><trkseg>
<trkpt lat="50.152799" lon="4.326657"><time>2026-05-02T23:55:21Z</time></trkpt>
<trkpt lat="50.152668" lon="4.326180"><time>2026-05-03T00:05:21Z</time></trkpt>
<trkpt lat="50.152536" lon="4.325791"><time>2026-05-03T00:15:21Z</time></trkpt>
</trkseg>
</trk>
<trk>
<name>hfcfc165</name>
<cmt>q</cmt>
<desc>Froidchapelle Sentier n°165 </desc>
<link href="https://chemins.be/froidchapelle/sentier/165"/><trkseg>
<trkpt lat="50.147757" lon="4.334921"><time>2026-05-02T23:25:21Z</time></trkpt>
<trkpt lat="50.147904" lon="4.334583"><time>2026-05-02T23:35:21Z</time></trkpt>
<trkpt lat="50.147726" lon="4.332925"><time>2026-05-02T23:45:21Z</time></trkpt>
<trkpt lat="50.147149" lon="4.331294"><time>2026-05-02T23:55:21Z</time></trkpt>
<trkpt lat="50.147259" lon="4.330986"><time>2026-05-03T00:05:21Z</time></trkpt>
<trkpt lat="50.146842" lon="4.329584"><time>2026-05-03T00:15:21Z</time></trkpt>
<trkpt lat="50.145426" lon="4.327646"><time>2026-05-03T00:25:21Z</time></trkpt>
</trkseg>
</trk>
<trk>
<name>hfcfc166</name>
<cmt>q</cmt>
<desc>Froidchapelle Sentier n°166 </desc>
<link href="https://chemins.be/froidchapelle/sentier/166"/><trkseg>
<trkpt lat="50.147745" lon="4.325750"><time>2026-05-02T23:25:21Z</time></trkpt>
<trkpt lat="50.145508" lon="4.321859"><time>2026-05-02T23:35:21Z</time></trkpt>
</trkseg>
</trk>
<trk>
<name>hfcfc167</name>
<cmt>q</cmt>
<desc>Froidchapelle Sentier n°167 </desc>
<link href="https://chemins.be/froidchapelle/sentier/167"/><trkseg>
<trkpt lat="50.147306" lon="4.334594"><time>2026-05-02T23:25:21Z</time></trkpt>
<trkpt lat="50.147732" lon="4.332952"><time>2026-05-02T23:35:21Z</time></trkpt>
</trkseg>
</trk>
<trk>
<name>hfcfc168</name>
<cmt>q</cmt>
<desc>Froidchapelle Sentier n°168 </desc>
<link href="https://chemins.be/froidchapelle/sentier/168"/><trkseg>
<trkpt lat="50.148169" lon="4.334603"><time>2026-05-02T23:25:21Z</time></trkpt>
<trkpt lat="50.149022" lon="4.336069"><time>2026-05-02T23:35:21Z</time></trkpt>
<trkpt lat="50.148978" lon="4.337410"><time>2026-05-02T23:45:21Z</time></trkpt>
</trkseg>
</trk>
<trk>
<name>hfcfc169</name>
<cmt>q</cmt>
<desc>Froidchapelle Sentier n°169 Rue de Martinsart</desc>
<link href="https://chemins.be/froidchapelle/sentier/169"/><trkseg>
<trkpt lat="50.148840" lon="4.348715"><time>2026-05-02T23:25:21Z</time></trkpt>
<trkpt lat="50.148604" lon="4.352431"><time>2026-05-02T23:35:21Z</time></trkpt>
</trkseg>
</trk>
<trk>
<name>hfcfc170</name>
<cmt>q</cmt>
<desc>Froidchapelle Sentier n°170 </desc>
<link href="https://chemins.be/froidchapelle/sentier/170"/><trkseg>
<trkpt lat="50.149169" lon="4.346908"><time>2026-05-02T23:25:21Z</time></trkpt>
<trkpt lat="50.150672" lon="4.347151"><time>2026-05-02T23:35:21Z</time></trkpt>
<trkpt lat="50.151080" lon="4.347323"><time>2026-05-02T23:45:21Z</time></trkpt>
<trkpt lat="50.151442" lon="4.348031"><time>2026-05-02T23:55:21Z</time></trkpt>
</trkseg>
</trk>
<trk>
<name>hfcfc171</name>
<cmt>q</cmt>
<desc>Froidchapelle Sentier n°171 </desc>
<link href="https://chemins.be/froidchapelle/sentier/171"/><trkseg>
<trkpt lat="50.148406" lon="4.349719"><time>2026-05-02T23:25:21Z</time></trkpt>
<trkpt lat="50.147867" lon="4.351307"><time>2026-05-02T23:35:21Z</time></trkpt>
<trkpt lat="50.147317" lon="4.354199"><time>2026-05-02T23:45:21Z</time></trkpt>
</trkseg>
</trk>
<trk>
<name>hfcfc172</name>
<cmt>q</cmt>
<desc>Froidchapelle Sentier n°172 </desc>
<link href="https://chemins.be/froidchapelle/sentier/172"/><trkseg>
<trkpt lat="50.148226" lon="4.359546"><time>2026-05-02T23:25:21Z</time></trkpt>
<trkpt lat="50.147855" lon="4.359568"><time>2026-05-02T23:35:21Z</time></trkpt>
<trkpt lat="50.145096" lon="4.357658"><time>2026-05-02T23:45:21Z</time></trkpt>
</trkseg>
</trk>
<trk>
<name>hfcfc173</name>
<cmt>q</cmt>
<desc>Froidchapelle Sentier n°173 </desc>
<link href="https://chemins.be/froidchapelle/sentier/173"/><trkseg>
<trkpt lat="50.144487" lon="4.330055"><time>2026-05-02T23:25:21Z</time></trkpt>
<trkpt lat="50.143455" lon="4.329642"><time>2026-05-02T23:35:21Z</time></trkpt>
</trkseg>
</trk>
<trk>
<name>hfcfc174</name>
<cmt>q</cmt>
<desc>Froidchapelle Sentier n°174 </desc>
<link href="https://chemins.be/froidchapelle/sentier/174"/><trkseg>
<trkpt lat="50.141789" lon="4.335964"><time>2026-05-02T23:25:21Z</time></trkpt>
<trkpt lat="50.143100" lon="4.333847"><time>2026-05-02T23:35:21Z</time></trkpt>
<trkpt lat="50.143173" lon="4.332188"><time>2026-05-02T23:45:21Z</time></trkpt>
<trkpt lat="50.143384" lon="4.331751"><time>2026-05-02T23:55:21Z</time></trkpt>
</trkseg>
</trk>
<trk>
<name>hfcfc175</name>
<cmt>v</cmt>
<desc>Froidchapelle Sentier n°175 </desc>
<link href="https://chemins.be/froidchapelle/sentier/175"/><trkseg>
<trkpt lat="50.147145" lon="4.338496"><time>2026-05-02T23:25:21Z</time></trkpt>
<trkpt lat="50.144894" lon="4.337931"><time>2026-05-02T23:35:21Z</time></trkpt>
</trkseg>
</trk>
<trk>
<name>hfcfc176</name>
<cmt>q</cmt>
<desc>Froidchapelle Sentier n°176 </desc>
<link href="https://chemins.be/froidchapelle/sentier/176"/><trkseg>
<trkpt lat="50.143467" lon="4.336609"><time>2026-05-02T23:25:21Z</time></trkpt>
<trkpt lat="50.143449" lon="4.337106"><time>2026-05-02T23:35:21Z</time></trkpt>
<trkpt lat="50.143107" lon="4.339266"><time>2026-05-02T23:45:21Z</time></trkpt>
</trkseg>
</trk>
<trk>
<name>hfcfc177</name>
<cmt>q</cmt>
<desc>Froidchapelle Sentier n°177 </desc>
<link href="https://chemins.be/froidchapelle/sentier/177"/><trkseg>
<trkpt lat="50.142771" lon="4.337542"><time>2026-05-02T23:25:21Z</time></trkpt>
<trkpt lat="50.143538" lon="4.338919"><time>2026-05-02T23:35:21Z</time></trkpt>
</trkseg>
</trk>
<trk>
<name>hfcfc179</name>
<cmt>q</cmt>
<desc>Froidchapelle Sentier n°179 </desc>
<link href="https://chemins.be/froidchapelle/sentier/179"/><trkseg>
<trkpt lat="50.139007" lon="4.341531"><time>2026-05-02T23:25:21Z</time></trkpt>
<trkpt lat="50.138457" lon="4.344127"><time>2026-05-02T23:35:21Z</time></trkpt>
<trkpt lat="50.139454" lon="4.346348"><time>2026-05-02T23:45:21Z</time></trkpt>
</trkseg>
</trk>
<trk>
<name>hfcfc180</name>
<cmt>q</cmt>
<desc>Froidchapelle Sentier n°180 </desc>
<link href="https://chemins.be/froidchapelle/sentier/180"/><trkseg>
<trkpt lat="50.135372" lon="4.343225"><time>2026-05-02T23:25:21Z</time></trkpt>
<trkpt lat="50.135991" lon="4.344444"><time>2026-05-02T23:35:21Z</time></trkpt>
<trkpt lat="50.136117" lon="4.345027"><time>2026-05-02T23:45:21Z</time></trkpt>
</trkseg>
</trk>
<trk>
<name>hfcfc181</name>
<cmt>q</cmt>
<desc>Froidchapelle Sentier n°181 </desc>
<link href="https://chemins.be/froidchapelle/sentier/181"/><trkseg>
<trkpt lat="50.134222" lon="4.329019"><time>2026-05-02T23:25:21Z</time></trkpt>
<trkpt lat="50.134749" lon="4.334555"><time>2026-05-02T23:35:21Z</time></trkpt>
</trkseg>
</trk>
<trk>
<name>hfcfc182</name>
<cmt>q</cmt>
<desc>Froidchapelle Sentier n°182 </desc>
<link href="https://chemins.be/froidchapelle/sentier/182"/><trkseg>
<trkpt lat="50.140032" lon="4.304270"><time>2026-05-02T23:25:21Z</time></trkpt>
<trkpt lat="50.138746" lon="4.299742"><time>2026-05-02T23:35:21Z</time></trkpt>
</trkseg>
</trk>
<trk>
<name>hfcfc183</name>
<cmt>v</cmt>
<desc>Froidchapelle Chemin n°183 </desc>
<link href="https://chemins.be/froidchapelle/chemin/183"/><trkseg>
<trkpt lat="50.122750" lon="4.397648"><time>2026-05-02T23:25:21Z</time></trkpt>
<trkpt lat="50.124167" lon="4.397868"><time>2026-05-02T23:35:21Z</time></trkpt>
<trkpt lat="50.125570" lon="4.396981"><time>2026-05-02T23:45:21Z</time></trkpt>
<trkpt lat="50.126588" lon="4.395708"><time>2026-05-02T23:55:21Z</time></trkpt>
<trkpt lat="50.126957" lon="4.394656"><time>2026-05-03T00:05:21Z</time></trkpt>
<trkpt lat="50.127065" lon="4.393777"><time>2026-05-03T00:15:21Z</time></trkpt>
<trkpt lat="50.128560" lon="4.389156"><time>2026-05-03T00:25:21Z</time></trkpt>
<trkpt lat="50.129211" lon="4.387368"><time>2026-05-03T00:35:21Z</time></trkpt>
<trkpt lat="50.129415" lon="4.387207"><time>2026-05-03T00:45:21Z</time></trkpt>
</trkseg></trk>
<trk>
<name>hfcfc183</name>
<cmt>q</cmt>
<desc>Froidchapelle Chemin n°183 </desc>
<link href="https://chemins.be/froidchapelle/chemin/183"/><trkseg>
<trkpt lat="50.129415" lon="4.387207"><time>2026-05-03T00:45:21Z</time></trkpt>
<trkpt lat="50.130488" lon="4.386359"><time>2026-05-03T00:55:21Z</time></trkpt>
<trkpt lat="50.134048" lon="4.384258"><time>2026-05-03T01:05:21Z</time></trkpt>
<trkpt lat="50.135116" lon="4.383858"><time>2026-05-03T01:15:21Z</time></trkpt>
<trkpt lat="50.136054" lon="4.384229"><time>2026-05-03T01:25:21Z</time></trkpt>
</trkseg>
</trk>
<trk>
<name>hfcfc184</name>
<cmt>q</cmt>
<desc>Froidchapelle Sentier n°184 Rue du Bois le Comte</desc>
<link href="https://chemins.be/froidchapelle/sentier/184"/><trkseg>
<trkpt lat="50.099910" lon="4.361465"><time>2026-05-02T23:25:21Z</time></trkpt>
<trkpt lat="50.099400" lon="4.360199"><time>2026-05-02T23:35:21Z</time></trkpt>
<trkpt lat="50.096317" lon="4.358332"><time>2026-05-02T23:45:21Z</time></trkpt>
<trkpt lat="50.090953" lon="4.358342"><time>2026-05-02T23:55:21Z</time></trkpt>
<trkpt lat="50.090191" lon="4.358343"><time>2026-05-03T00:05:21Z</time></trkpt>
<trkpt lat="50.089805" lon="4.354169"><time>2026-05-03T00:15:21Z</time></trkpt>
<trkpt lat="50.089943" lon="4.351315"><time>2026-05-03T00:25:21Z</time></trkpt>
</trkseg></trk>
<trk>
<name>hfcfc184</name>
<cmt>r</cmt>
<desc>Froidchapelle Sentier n°184 Rue du Bois le Comte</desc>
<link href="https://chemins.be/froidchapelle/sentier/184"/><trkseg>
<trkpt lat="50.089943" lon="4.351315"><time>2026-05-03T00:25:21Z</time></trkpt>
<trkpt lat="50.086915" lon="4.348783"><time>2026-05-03T00:35:21Z</time></trkpt>
<trkpt lat="50.084877" lon="4.345500"><time>2026-05-03T00:45:21Z</time></trkpt>
</trkseg>
</trk>
<trk>
<name>hfcfc185</name>
<cmt>r</cmt>
<desc>Froidchapelle Sentier n°185 rue de la Queue de Rance</desc>
<link href="https://chemins.be/froidchapelle/sentier/185"/><trkseg>
<trkpt lat="50.120499" lon="4.281954"><time>2026-05-02T23:25:21Z</time></trkpt>
<trkpt lat="50.120643" lon="4.287887"><time>2026-05-02T23:35:21Z</time></trkpt>
<trkpt lat="50.120471" lon="4.288723"><time>2026-05-02T23:45:21Z</time></trkpt>
<trkpt lat="50.120595" lon="4.290344"><time>2026-05-02T23:55:21Z</time></trkpt>
<trkpt lat="50.121053" lon="4.291019"><time>2026-05-03T00:05:21Z</time></trkpt>
</trkseg></trk>
<trk>
<name>hfcfc185</name>
<cmt>q</cmt>
<desc>Froidchapelle Sentier n°185 rue de la Queue de Rance</desc>
<link href="https://chemins.be/froidchapelle/sentier/185"/><trkseg>
<trkpt lat="50.121053" lon="4.291019"><time>2026-05-03T00:05:21Z</time></trkpt>
<trkpt lat="50.121397" lon="4.294796"><time>2026-05-03T00:15:21Z</time></trkpt>
<trkpt lat="50.122855" lon="4.298487"><time>2026-05-03T00:25:21Z</time></trkpt>
<trkpt lat="50.125441" lon="4.306705"><time>2026-05-03T00:35:21Z</time></trkpt>
<trkpt lat="50.128000" lon="4.309366"><time>2026-05-03T00:45:21Z</time></trkpt>
<trkpt lat="50.134489" lon="4.314237"><time>2026-05-03T00:55:21Z</time></trkpt>
</trkseg>
</trk>
<trk>
<name>hfcfc186</name>
<cmt>v</cmt>
<desc>Froidchapelle Sentier n°186 </desc>
<link href="https://chemins.be/froidchapelle/sentier/186"/><trkseg>
<trkpt lat="50.140126" lon="4.367080"><time>2026-05-02T23:25:21Z</time></trkpt>
<trkpt lat="50.138339" lon="4.373282"><time>2026-05-02T23:35:21Z</time></trkpt>
</trkseg>
</trk>
<trk>
<name>hfcfc187</name>
<cmt>q</cmt>
<desc>Froidchapelle Sentier n°187 </desc>
<link href="https://chemins.be/froidchapelle/sentier/187"/><trkseg>
<trkpt lat="50.123614" lon="4.377701"><time>2026-05-02T23:25:21Z</time></trkpt>
<trkpt lat="50.124098" lon="4.377935"><time>2026-05-02T23:35:21Z</time></trkpt>
<trkpt lat="50.132143" lon="4.381821"><time>2026-05-02T23:45:21Z</time></trkpt>
<trkpt lat="50.134032" lon="4.384081"><time>2026-05-02T23:55:21Z</time></trkpt>
</trkseg>
</trk>
<trk>
<name>hfcfc188</name>
<cmt>q</cmt>
<desc>Froidchapelle Sentier n°188 </desc>
<link href="https://chemins.be/froidchapelle/sentier/188"/><trkseg>
<trkpt lat="50.117345" lon="4.367902"><time>2026-05-02T23:25:21Z</time></trkpt>
<trkpt lat="50.118102" lon="4.368353"><time>2026-05-02T23:35:21Z</time></trkpt>
<trkpt lat="50.119781" lon="4.376228"><time>2026-05-02T23:45:21Z</time></trkpt>
<trkpt lat="50.123014" lon="4.385090"><time>2026-05-02T23:55:21Z</time></trkpt>
<trkpt lat="50.124101" lon="4.385498"><time>2026-05-03T00:05:21Z</time></trkpt>
</trkseg>
</trk>
<trk>
<name>hfcfc189</name>
<cmt>q</cmt>
<desc>Froidchapelle Sentier n°189 </desc>
<link href="https://chemins.be/froidchapelle/sentier/189"/><trkseg>
<trkpt lat="50.090177" lon="4.358418"><time>2026-05-02T23:25:21Z</time></trkpt>
<trkpt lat="50.089482" lon="4.360360"><time>2026-05-02T23:35:21Z</time></trkpt>
<trkpt lat="50.087375" lon="4.361004"><time>2026-05-02T23:45:21Z</time></trkpt>
<trkpt lat="50.086446" lon="4.367537"><time>2026-05-02T23:55:21Z</time></trkpt>
</trkseg>
</trk>
<trk>
<name>hfcfc19</name>
<cmt>v</cmt>
<desc>Froidchapelle Chemin n°19 </desc>
<link href="https://chemins.be/froidchapelle/chemin/19"/><trkseg>
<trkpt lat="50.153430" lon="4.291229"><time>2026-05-02T23:25:21Z</time></trkpt>
<trkpt lat="50.153842" lon="4.290104"><time>2026-05-02T23:35:21Z</time></trkpt>
<trkpt lat="50.153372" lon="4.287837"><time>2026-05-02T23:45:21Z</time></trkpt>
<trkpt lat="50.153862" lon="4.286885"><time>2026-05-02T23:55:21Z</time></trkpt>
</trkseg>
</trk>
<trk>
<name>hfcfc20</name>
<cmt>v</cmt>
<desc>Froidchapelle Chemin n°20 </desc>
<link href="https://chemins.be/froidchapelle/chemin/20"/><trkseg>
<trkpt lat="50.148135" lon="4.360514"><time>2026-05-02T23:25:21Z</time></trkpt>
<trkpt lat="50.146916" lon="4.363139"><time>2026-05-02T23:35:21Z</time></trkpt>
<trkpt lat="50.145717" lon="4.366590"><time>2026-05-02T23:45:21Z</time></trkpt>
<trkpt lat="50.144369" lon="4.369093"><time>2026-05-02T23:55:21Z</time></trkpt>
</trkseg>
</trk>
<trk>
<name>hfcfc24</name>
<cmt>v</cmt>
<desc>Froidchapelle Chemin n°24 </desc>
<link href="https://chemins.be/froidchapelle/chemin/24"/><trkseg>
<trkpt lat="50.165189" lon="4.304821"><time>2026-05-02T23:25:21Z</time></trkpt>
<trkpt lat="50.165620" lon="4.305100"><time>2026-05-02T23:35:21Z</time></trkpt>
<trkpt lat="50.166474" lon="4.304847"><time>2026-05-02T23:45:21Z</time></trkpt>
<trkpt lat="50.167894" lon="4.303725"><time>2026-05-02T23:55:21Z</time></trkpt>
</trkseg></trk>
<trk>
<name>hfcfc24</name>
<cmt>b</cmt>
<desc>Froidchapelle Chemin n°24 </desc>
<link href="https://chemins.be/froidchapelle/chemin/24"/><trkseg>
<trkpt lat="50.167894" lon="4.303725"><time>2026-05-02T23:55:21Z</time></trkpt>
<trkpt lat="50.168538" lon="4.303171"><time>2026-05-03T00:05:21Z</time></trkpt>
<trkpt lat="50.168766" lon="4.303360"><time>2026-05-03T00:15:21Z</time></trkpt>
</trkseg>
</trk>
<trk>
<name>hfcfc25</name>
<cmt>v</cmt>
<desc>Froidchapelle Chemin n°25 Rue du Haut Marteau</desc>
<link href="https://chemins.be/froidchapelle/chemin/25"/><trkseg>
<trkpt lat="50.168885" lon="4.307615"><time>2026-05-02T23:25:21Z</time></trkpt>
<trkpt lat="50.169127" lon="4.306341"><time>2026-05-02T23:35:21Z</time></trkpt>
<trkpt lat="50.169316" lon="4.305459"><time>2026-05-02T23:45:21Z</time></trkpt>
<trkpt lat="50.169359" lon="4.304135"><time>2026-05-02T23:55:21Z</time></trkpt>
<trkpt lat="50.169420" lon="4.303540"><time>2026-05-03T00:05:21Z</time></trkpt>
</trkseg>
</trk>
<trk>
<name>hfcfc3</name>
<cmt>r</cmt>
<desc>Froidchapelle Chemin n°3 </desc>
<link href="https://chemins.be/froidchapelle/chemin/3"/><trkseg>
<trkpt lat="50.147630" lon="4.325922"><time>2026-05-02T23:25:21Z</time></trkpt>
<trkpt lat="50.148057" lon="4.324613"><time>2026-05-02T23:35:21Z</time></trkpt>
<trkpt lat="50.148285" lon="4.323989"><time>2026-05-02T23:45:21Z</time></trkpt>
</trkseg></trk>
<trk>
<name>hfcfc3</name>
<cmt>s</cmt>
<desc>Froidchapelle Chemin n°3 </desc>
<link href="https://chemins.be/froidchapelle/chemin/3"/><trkseg>
<trkpt lat="50.148285" lon="4.323989"><time>2026-05-02T23:45:21Z</time></trkpt>
<trkpt lat="50.148689" lon="4.324685"><time>2026-05-02T23:55:21Z</time></trkpt>
<trkpt lat="50.149784" lon="4.326700"><time>2026-05-03T00:05:21Z</time></trkpt>
<trkpt lat="50.150109" lon="4.326581"><time>2026-05-03T00:15:21Z</time></trkpt>
</trkseg>
</trk>
<trk>
<name>hfcfc34</name>
<cmt>v</cmt>
<desc>Froidchapelle Chemin n°34 </desc>
<link href="https://chemins.be/froidchapelle/chemin/34"/><trkseg>
<trkpt lat="50.144390" lon="4.332068"><time>2026-05-02T23:25:21Z</time></trkpt>
<trkpt lat="50.144308" lon="4.332257"><time>2026-05-02T23:35:21Z</time></trkpt>
<trkpt lat="50.143314" lon="4.331660"><time>2026-05-02T23:45:21Z</time></trkpt>
</trkseg></trk>
<trk>
<name>hfcfc34</name>
<cmt>q</cmt>
<desc>Froidchapelle Chemin n°34 </desc>
<link href="https://chemins.be/froidchapelle/chemin/34"/><trkseg>
<trkpt lat="50.143314" lon="4.331660"><time>2026-05-02T23:45:21Z</time></trkpt>
<trkpt lat="50.142865" lon="4.331557"><time>2026-05-02T23:55:21Z</time></trkpt>
<trkpt lat="50.140803" lon="4.330333"><time>2026-05-03T00:05:21Z</time></trkpt>
</trkseg></trk>
<trk>
<name>hfcfc34</name>
<cmt>d</cmt>
<desc>Froidchapelle Chemin n°34 </desc>
<link href="https://chemins.be/froidchapelle/chemin/34"/><trkseg>
<trkpt lat="50.140803" lon="4.330333"><time>2026-05-03T00:05:21Z</time></trkpt>
<trkpt lat="50.140021" lon="4.329877"><time>2026-05-03T00:15:21Z</time></trkpt>
<trkpt lat="50.140074" lon="4.329285"><time>2026-05-03T00:25:21Z</time></trkpt>
</trkseg>
</trk>
<trk>
<name>hfcfc36</name>
<cmt>q</cmt>
<desc>Froidchapelle Chemin n°36 </desc>
<link href="https://chemins.be/froidchapelle/chemin/36"/><trkseg>
<trkpt lat="50.152230" lon="4.327229"><time>2026-05-02T23:25:21Z</time></trkpt>
<trkpt lat="50.152080" lon="4.328522"><time>2026-05-02T23:35:21Z</time></trkpt>
</trkseg>
</trk>
<trk>
<name>hfcfc4</name>
<cmt>v</cmt>
<desc>Froidchapelle Chemin n°4 </desc>
<link href="https://chemins.be/froidchapelle/chemin/4"/><trkseg>
<trkpt lat="50.148383" lon="4.309908"><time>2026-05-02T23:25:21Z</time></trkpt>
<trkpt lat="50.148470" lon="4.309793"><time>2026-05-02T23:35:21Z</time></trkpt>
<trkpt lat="50.148586" lon="4.309195"><time>2026-05-02T23:45:21Z</time></trkpt>
</trkseg></trk>
<trk>
<name>hfcfc4</name>
<cmt>d</cmt>
<desc>Froidchapelle Chemin n°4 </desc>
<link href="https://chemins.be/froidchapelle/chemin/4"/><trkseg>
<trkpt lat="50.148586" lon="4.309195"><time>2026-05-02T23:45:21Z</time></trkpt>
<trkpt lat="50.148985" lon="4.307283"><time>2026-05-02T23:55:21Z</time></trkpt>
<trkpt lat="50.148568" lon="4.305029"><time>2026-05-03T00:05:21Z</time></trkpt>
</trkseg>
</trk>
<trk>
<name>hfcfc40</name>
<cmt>v</cmt>
<desc>Froidchapelle Chemin n°40 </desc>
<link href="https://chemins.be/froidchapelle/chemin/40"/><trkseg>
<trkpt lat="50.137530" lon="4.332701"><time>2026-05-02T23:25:21Z</time></trkpt>
<trkpt lat="50.135485" lon="4.334518"><time>2026-05-02T23:35:21Z</time></trkpt>
<trkpt lat="50.134018" lon="4.334460"><time>2026-05-02T23:45:21Z</time></trkpt>
</trkseg>
</trk>
<trk>
<name>hfcfc41</name>
<cmt>r</cmt>
<desc>Froidchapelle Chemin n°41 Rue du Pont des Hamaides</desc>
<link href="https://chemins.be/froidchapelle/chemin/41"/><trkseg>
<trkpt lat="50.147554" lon="4.348552"><time>2026-05-02T23:25:21Z</time></trkpt>
<trkpt lat="50.146657" lon="4.350526"><time>2026-05-02T23:35:21Z</time></trkpt>
</trkseg>
</trk>
<trk>
<name>hfcfc42</name>
<cmt>q</cmt>
<desc>Froidchapelle Chemin n°42 </desc>
<link href="https://chemins.be/froidchapelle/chemin/42"/><trkseg>
<trkpt lat="50.141411" lon="4.327202"><time>2026-05-02T23:25:21Z</time></trkpt>
<trkpt lat="50.139646" lon="4.326122"><time>2026-05-02T23:35:21Z</time></trkpt>
</trkseg>
</trk>
<trk>
<name>hfcfc43</name>
<cmt>q</cmt>
<desc>Froidchapelle Chemin n°43 </desc>
<link href="https://chemins.be/froidchapelle/chemin/43"/><trkseg>
<trkpt lat="50.137679" lon="4.337273"><time>2026-05-02T23:25:21Z</time></trkpt>
<trkpt lat="50.136312" lon="4.336258"><time>2026-05-02T23:35:21Z</time></trkpt>
<trkpt lat="50.134845" lon="4.334584"><time>2026-05-02T23:45:21Z</time></trkpt>
</trkseg>
</trk>
<trk>
<name>hfcfc47</name>
<cmt>r</cmt>
<desc>Froidchapelle Chemin n°47 Rue du Haut Marteau</desc>
<link href="https://chemins.be/froidchapelle/chemin/47"/><trkseg>
<trkpt lat="50.166267" lon="4.313782"><time>2026-05-02T23:25:21Z</time></trkpt>
<trkpt lat="50.167749" lon="4.314398"><time>2026-05-02T23:35:21Z</time></trkpt>
<trkpt lat="50.168514" lon="4.314651"><time>2026-05-02T23:45:21Z</time></trkpt>
<trkpt lat="50.168798" lon="4.315292"><time>2026-05-02T23:55:21Z</time></trkpt>
<trkpt lat="50.168836" lon="4.315399"><time>2026-05-03T00:05:21Z</time></trkpt>
</trkseg></trk>
<trk>
<name>hfcfc47</name>
<cmt>d</cmt>
<desc>Froidchapelle Chemin n°47 Rue du Haut Marteau</desc>
<link href="https://chemins.be/froidchapelle/chemin/47"/><trkseg>
<trkpt lat="50.168836" lon="4.315399"><time>2026-05-03T00:05:21Z</time></trkpt>
<trkpt lat="50.169031" lon="4.316102"><time>2026-05-03T00:15:21Z</time></trkpt>
</trkseg>
</trk>
<trk>
<name>hfcfc48</name>
<cmt>q</cmt>
<desc>Froidchapelle Chemin n°48 </desc>
<link href="https://chemins.be/froidchapelle/chemin/48"/><trkseg>
<trkpt lat="50.159135" lon="4.294241"><time>2026-05-02T23:25:21Z</time></trkpt>
<trkpt lat="50.156686" lon="4.293417"><time>2026-05-02T23:35:21Z</time></trkpt>
<trkpt lat="50.155696" lon="4.293207"><time>2026-05-02T23:45:21Z</time></trkpt>
</trkseg>
</trk>
<trk>
<name>hfcfc53</name>
<cmt>r</cmt>
<desc>Froidchapelle Chemin n°53 </desc>
<link href="https://chemins.be/froidchapelle/chemin/53"/><trkseg>
<trkpt lat="50.134718" lon="4.345558"><time>2026-05-02T23:25:21Z</time></trkpt>
<trkpt lat="50.136529" lon="4.344878"><time>2026-05-02T23:35:21Z</time></trkpt>
</trkseg></trk>
<trk>
<name>hfcfc53</name>
<cmt>v</cmt>
<desc>Froidchapelle Chemin n°53 </desc>
<link href="https://chemins.be/froidchapelle/chemin/53"/><trkseg>
<trkpt lat="50.136529" lon="4.344878"><time>2026-05-02T23:35:21Z</time></trkpt>
<trkpt lat="50.137368" lon="4.344878"><time>2026-05-02T23:45:21Z</time></trkpt>
<trkpt lat="50.137863" lon="4.344535"><time>2026-05-02T23:55:21Z</time></trkpt>
</trkseg>
</trk>
<trk>
<name>hfcfc54</name>
<cmt>v</cmt>
<desc>Froidchapelle Chemin n°54 </desc>
<link href="https://chemins.be/froidchapelle/chemin/54"/><trkseg>
<trkpt lat="50.135138" lon="4.368320"><time>2026-05-02T23:25:21Z</time></trkpt>
<trkpt lat="50.134609" lon="4.369016"><time>2026-05-02T23:35:21Z</time></trkpt>
</trkseg>
</trk>
<trk>
<name>hfcfc56bis</name>
<cmt>q</cmt>
<desc>Froidchapelle Chemin n°56bis </desc>
<link href="https://chemins.be/froidchapelle/chemin/56bis"/><trkseg>
<trkpt lat="50.166996" lon="4.328388"><time>2026-05-02T23:25:21Z</time></trkpt>
<trkpt lat="50.167241" lon="4.327508"><time>2026-05-02T23:35:21Z</time></trkpt>
</trkseg>
</trk>
<trk>
<name>hfcfc57</name>
<cmt>v</cmt>
<desc>Froidchapelle Chemin n°57 </desc>
<link href="https://chemins.be/froidchapelle/chemin/57"/><trkseg>
<trkpt lat="50.147313" lon="4.309193"><time>2026-05-02T23:25:21Z</time></trkpt>
<trkpt lat="50.146910" lon="4.308604"><time>2026-05-02T23:35:21Z</time></trkpt>
<trkpt lat="50.146708" lon="4.308164"><time>2026-05-02T23:45:21Z</time></trkpt>
</trkseg>
</trk>
<trk>
<name>hfcfc59</name>
<cmt>v</cmt>
<desc>Froidchapelle Chemin n°59 </desc>
<link href="https://chemins.be/froidchapelle/chemin/59"/><trkseg>
<trkpt lat="50.154541" lon="4.292108"><time>2026-05-02T23:25:21Z</time></trkpt>
<trkpt lat="50.154094" lon="4.293562"><time>2026-05-02T23:35:21Z</time></trkpt>
<trkpt lat="50.153623" lon="4.294549"><time>2026-05-02T23:45:21Z</time></trkpt>
</trkseg>
</trk>
<trk>
<name>hfcfc60</name>
<cmt>q</cmt>
<desc>Froidchapelle Chemin n°60 </desc>
<link href="https://chemins.be/froidchapelle/chemin/60"/><trkseg>
<trkpt lat="50.150249" lon="4.330378"><time>2026-05-02T23:25:21Z</time></trkpt>
<trkpt lat="50.150276" lon="4.331237"><time>2026-05-02T23:35:21Z</time></trkpt>
<trkpt lat="50.150208" lon="4.331837"><time>2026-05-02T23:45:21Z</time></trkpt>
</trkseg>
</trk>
<trk>
<name>hfcfc61</name>
<cmt>v</cmt>
<desc>Froidchapelle Chemin n°61 </desc>
<link href="https://chemins.be/froidchapelle/chemin/61"/><trkseg>
<trkpt lat="50.149297" lon="4.336751"><time>2026-05-02T23:25:21Z</time></trkpt>
<trkpt lat="50.148101" lon="4.339369"><time>2026-05-02T23:35:21Z</time></trkpt>
</trkseg>
</trk>
<trk>
<name>hfcfc62</name>
<cmt>q</cmt>
<desc>Froidchapelle Chemin n°62 </desc>
<link href="https://chemins.be/froidchapelle/chemin/62"/><trkseg>
<trkpt lat="50.145285" lon="4.325244"><time>2026-05-02T23:25:21Z</time></trkpt>
<trkpt lat="50.145444" lon="4.323290"><time>2026-05-02T23:35:21Z</time></trkpt>
<trkpt lat="50.145513" lon="4.321888"><time>2026-05-02T23:45:21Z</time></trkpt>
</trkseg>
</trk>
<trk>
<name>hfcfc63</name>
<cmt>q</cmt>
<desc>Froidchapelle Sentier n°63 </desc>
<link href="https://chemins.be/froidchapelle/sentier/63"/><trkseg>
<trkpt lat="50.152717" lon="4.325336"><time>2026-05-02T23:25:21Z</time></trkpt>
<trkpt lat="50.152561" lon="4.321552"><time>2026-05-02T23:35:21Z</time></trkpt>
</trkseg></trk>
<trk>
<name>hfcfc63</name>
<cmt>r</cmt>
<desc>Froidchapelle Sentier n°63 </desc>
<link href="https://chemins.be/froidchapelle/sentier/63"/><trkseg>
<trkpt lat="50.152561" lon="4.321552"><time>2026-05-02T23:35:21Z</time></trkpt>
<trkpt lat="50.153198" lon="4.320851"><time>2026-05-02T23:45:21Z</time></trkpt>
</trkseg></trk>
<trk>
<name>hfcfc63</name>
<cmt>q</cmt>
<desc>Froidchapelle Sentier n°63 </desc>
<link href="https://chemins.be/froidchapelle/sentier/63"/><trkseg>
<trkpt lat="50.153198" lon="4.320851"><time>2026-05-02T23:45:21Z</time></trkpt>
<trkpt lat="50.153406" lon="4.318196"><time>2026-05-02T23:55:21Z</time></trkpt>
<trkpt lat="50.154276" lon="4.314662"><time>2026-05-03T00:05:21Z</time></trkpt>
<trkpt lat="50.154169" lon="4.313796"><time>2026-05-03T00:15:21Z</time></trkpt>
<trkpt lat="50.154049" lon="4.312720"><time>2026-05-03T00:25:21Z</time></trkpt>
<trkpt lat="50.154267" lon="4.312116"><time>2026-05-03T00:35:21Z</time></trkpt>
<trkpt lat="50.155175" lon="4.305865"><time>2026-05-03T00:45:21Z</time></trkpt>
<trkpt lat="50.156353" lon="4.300271"><time>2026-05-03T00:55:21Z</time></trkpt>
<trkpt lat="50.157160" lon="4.298626"><time>2026-05-03T01:05:21Z</time></trkpt>
<trkpt lat="50.158168" lon="4.298320"><time>2026-05-03T01:15:21Z</time></trkpt>
<trkpt lat="50.158750" lon="4.297698"><time>2026-05-03T01:25:21Z</time></trkpt>
<trkpt lat="50.158984" lon="4.298192"><time>2026-05-03T01:35:21Z</time></trkpt>
<trkpt lat="50.159699" lon="4.296532"><time>2026-05-03T01:45:21Z</time></trkpt>
<trkpt lat="50.160139" lon="4.294808"><time>2026-05-03T01:55:21Z</time></trkpt>
<trkpt lat="50.160950" lon="4.291790"><time>2026-05-03T02:05:21Z</time></trkpt>
<trkpt lat="50.161138" lon="4.290460"><time>2026-05-03T02:15:21Z</time></trkpt>
<trkpt lat="50.161962" lon="4.288915"><time>2026-05-03T02:25:21Z</time></trkpt>
<trkpt lat="50.162109" lon="4.288593"><time>2026-05-03T02:35:21Z</time></trkpt>
<trkpt lat="50.162842" lon="4.288071"><time>2026-05-03T02:45:21Z</time></trkpt>
</trkseg>
</trk>
<trk>
<name>hfcfc64</name>
<cmt>q</cmt>
<desc>Froidchapelle Sentier n°64 </desc>
<link href="https://chemins.be/froidchapelle/sentier/64"/><trkseg>
<trkpt lat="50.158518" lon="4.297336"><time>2026-05-02T23:25:21Z</time></trkpt>
<trkpt lat="50.158384" lon="4.296344"><time>2026-05-02T23:35:21Z</time></trkpt>
<trkpt lat="50.158088" lon="4.295716"><time>2026-05-02T23:45:21Z</time></trkpt>
<trkpt lat="50.157855" lon="4.294847"><time>2026-05-02T23:55:21Z</time></trkpt>
<trkpt lat="50.156446" lon="4.293350"><time>2026-05-03T00:05:21Z</time></trkpt>
</trkseg>
</trk>
<trk>
<name>hfcfc65</name>
<cmt>q</cmt>
<desc>Froidchapelle Sentier n°65 Rue de l'Ermitage</desc>
<link href="https://chemins.be/froidchapelle/sentier/65"/><trkseg>
<trkpt lat="50.162880" lon="4.307966"><time>2026-05-02T23:25:21Z</time></trkpt>
<trkpt lat="50.161862" lon="4.306024"><time>2026-05-02T23:35:21Z</time></trkpt>
<trkpt lat="50.161452" lon="4.303547"><time>2026-05-02T23:45:21Z</time></trkpt>
<trkpt lat="50.161297" lon="4.299299"><time>2026-05-02T23:55:21Z</time></trkpt>
<trkpt lat="50.161896" lon="4.295309"><time>2026-05-03T00:05:21Z</time></trkpt>
</trkseg></trk>
<trk>
<name>hfcfc65</name>
<cmt>r</cmt>
<desc>Froidchapelle Sentier n°65 Rue de l'Ermitage</desc>
<link href="https://chemins.be/froidchapelle/sentier/65"/><trkseg>
<trkpt lat="50.161896" lon="4.295309"><time>2026-05-03T00:05:21Z</time></trkpt>
<trkpt lat="50.162140" lon="4.292847"><time>2026-05-03T00:15:21Z</time></trkpt>
<trkpt lat="50.161764" lon="4.290329"><time>2026-05-03T00:25:21Z</time></trkpt>
<trkpt lat="50.161892" lon="4.289113"><time>2026-05-03T00:35:21Z</time></trkpt>
</trkseg>
</trk>
<trk>
<name>hfcfc66</name>
<cmt>q</cmt>
<desc>Froidchapelle Sentier n°66 </desc>
<link href="https://chemins.be/froidchapelle/sentier/66"/><trkseg>
<trkpt lat="50.163464" lon="4.310208"><time>2026-05-02T23:25:21Z</time></trkpt>
<trkpt lat="50.163175" lon="4.310401"><time>2026-05-02T23:35:21Z</time></trkpt>
<trkpt lat="50.162887" lon="4.310347"><time>2026-05-02T23:45:21Z</time></trkpt>
<trkpt lat="50.160467" lon="4.312043"><time>2026-05-02T23:55:21Z</time></trkpt>
</trkseg>
</trk>
<trk>
<name>hfcfc67</name>
<cmt>q</cmt>
<desc>Froidchapelle Sentier n°67 Rue de Fourbechies</desc>
<link href="https://chemins.be/froidchapelle/sentier/67"/><trkseg>
<trkpt lat="50.163553" lon="4.310149"><time>2026-05-02T23:25:21Z</time></trkpt>
<trkpt lat="50.165189" lon="4.308368"><time>2026-05-02T23:35:21Z</time></trkpt>
<trkpt lat="50.165291" lon="4.304820"><time>2026-05-02T23:45:21Z</time></trkpt>
</trkseg></trk>
<trk>
<name>hfcfc67</name>
<cmt>r</cmt>
<desc>Froidchapelle Sentier n°67 Rue de Fourbechies</desc>
<link href="https://chemins.be/froidchapelle/sentier/67"/><trkseg>
<trkpt lat="50.165291" lon="4.304820"><time>2026-05-02T23:45:21Z</time></trkpt>
<trkpt lat="50.166180" lon="4.300972"><time>2026-05-02T23:55:21Z</time></trkpt>
</trkseg></trk>
<trk>
<name>hfcfc67</name>
<cmt>q</cmt>
<desc>Froidchapelle Sentier n°67 Rue de Fourbechies</desc>
<link href="https://chemins.be/froidchapelle/sentier/67"/><trkseg>
<trkpt lat="50.166180" lon="4.300972"><time>2026-05-02T23:55:21Z</time></trkpt>
<trkpt lat="50.167481" lon="4.298197"><time>2026-05-03T00:05:21Z</time></trkpt>
</trkseg>
</trk>
<trk>
<name>hfcfc68</name>
<cmt>q</cmt>
<desc>Froidchapelle Sentier n°68 Rue de Sautizelle</desc>
<link href="https://chemins.be/froidchapelle/sentier/68"/><trkseg>
<trkpt lat="50.163051" lon="4.314223"><time>2026-05-02T23:25:21Z</time></trkpt>
<trkpt lat="50.161639" lon="4.316129"><time>2026-05-02T23:35:21Z</time></trkpt>
</trkseg></trk>
<trk>
<name>hfcfc68</name>
<cmt>v</cmt>
<desc>Froidchapelle Sentier n°68 Rue de Sautizelle</desc>
<link href="https://chemins.be/froidchapelle/sentier/68"/><trkseg>
<trkpt lat="50.161639" lon="4.316129"><time>2026-05-02T23:35:21Z</time></trkpt>
<trkpt lat="50.161397" lon="4.316232"><time>2026-05-02T23:45:21Z</time></trkpt>
<trkpt lat="50.160396" lon="4.317090"><time>2026-05-02T23:55:21Z</time></trkpt>
<trkpt lat="50.159846" lon="4.318275"><time>2026-05-03T00:05:21Z</time></trkpt>
</trkseg></trk>
<trk>
<name>hfcfc68</name>
<cmt>q</cmt>
<desc>Froidchapelle Sentier n°68 Rue de Sautizelle</desc>
<link href="https://chemins.be/froidchapelle/sentier/68"/><trkseg>
<trkpt lat="50.159846" lon="4.318275"><time>2026-05-03T00:05:21Z</time></trkpt>
<trkpt lat="50.158219" lon="4.322841"><time>2026-05-03T00:15:21Z</time></trkpt>
<trkpt lat="50.157669" lon="4.323562"><time>2026-05-03T00:25:21Z</time></trkpt>
</trkseg>
</trk>
<trk>
<name>hfcfc7</name>
<cmt>v</cmt>
<desc>Froidchapelle Chemin n°7 </desc>
<link href="https://chemins.be/froidchapelle/chemin/7"/><trkseg>
<trkpt lat="50.172260" lon="4.312493"><time>2026-05-02T23:25:21Z</time></trkpt>
<trkpt lat="50.172876" lon="4.312714"><time>2026-05-02T23:35:21Z</time></trkpt>
</trkseg>
</trk>
<trk>
<name>hfcfc70</name>
<cmt>q</cmt>
<desc>Froidchapelle Sentier n°70 </desc>
<link href="https://chemins.be/froidchapelle/sentier/70"/><trkseg>
<trkpt lat="50.163223" lon="4.315524"><time>2026-05-02T23:25:21Z</time></trkpt>
<trkpt lat="50.164686" lon="4.313853"><time>2026-05-02T23:35:21Z</time></trkpt>
<trkpt lat="50.165195" lon="4.313271"><time>2026-05-02T23:45:21Z</time></trkpt>
<trkpt lat="50.166556" lon="4.312026"><time>2026-05-02T23:55:21Z</time></trkpt>
<trkpt lat="50.166941" lon="4.312005"><time>2026-05-03T00:05:21Z</time></trkpt>
</trkseg>
</trk>
<trk>
<name>hfcfc71</name>
<cmt>v</cmt>
<desc>Froidchapelle Sentier n°71 Rue de Sautizelle</desc>
<link href="https://chemins.be/froidchapelle/sentier/71"/><trkseg>
<trkpt lat="50.163072" lon="4.316188"><time>2026-05-02T23:25:21Z</time></trkpt>
<trkpt lat="50.163567" lon="4.316019"><time>2026-05-02T23:35:21Z</time></trkpt>
<trkpt lat="50.164016" lon="4.316187"><time>2026-05-02T23:45:21Z</time></trkpt>
<trkpt lat="50.164331" lon="4.315949"><time>2026-05-02T23:55:21Z</time></trkpt>
</trkseg></trk>
<trk>
<name>hfcfc71</name>
<cmt>q</cmt>
<desc>Froidchapelle Sentier n°71 Rue de Sautizelle</desc>
<link href="https://chemins.be/froidchapelle/sentier/71"/><trkseg>
<trkpt lat="50.164331" lon="4.315949"><time>2026-05-02T23:55:21Z</time></trkpt>
<trkpt lat="50.165527" lon="4.315443"><time>2026-05-03T00:05:21Z</time></trkpt>
</trkseg>
</trk>
<trk>
<name>hfcfc72</name>
<cmt>q</cmt>
<desc>Froidchapelle Sentier n°72 </desc>
<link href="https://chemins.be/froidchapelle/sentier/72"/><trkseg>
<trkpt lat="50.164549" lon="4.313121"><time>2026-05-02T23:25:21Z</time></trkpt>
<trkpt lat="50.164567" lon="4.313641"><time>2026-05-02T23:35:21Z</time></trkpt>
<trkpt lat="50.164752" lon="4.313984"><time>2026-05-02T23:45:21Z</time></trkpt>
<trkpt lat="50.164914" lon="4.315331"><time>2026-05-02T23:55:21Z</time></trkpt>
<trkpt lat="50.165116" lon="4.315626"><time>2026-05-03T00:05:21Z</time></trkpt>
</trkseg>
</trk>
<trk>
<name>hfcfc73</name>
<cmt>q</cmt>
<desc>Froidchapelle Sentier n°73 </desc>
<link href="https://chemins.be/froidchapelle/sentier/73"/><trkseg>
<trkpt lat="50.168564" lon="4.314795"><time>2026-05-02T23:25:21Z</time></trkpt>
<trkpt lat="50.171409" lon="4.316261"><time>2026-05-02T23:35:21Z</time></trkpt>
</trkseg>
</trk>
<trk>
<name>hfcfc74</name>
<cmt>q</cmt>
<desc>Froidchapelle Sentier n°74 Rue du Champ de la Truie</desc>
<link href="https://chemins.be/froidchapelle/sentier/74"/><trkseg>
<trkpt lat="50.151500" lon="4.355623"><time>2026-05-02T23:25:21Z</time></trkpt>
<trkpt lat="50.153363" lon="4.355301"><time>2026-05-02T23:35:21Z</time></trkpt>
<trkpt lat="50.154573" lon="4.354818"><time>2026-05-02T23:45:21Z</time></trkpt>
<trkpt lat="50.154820" lon="4.353928"><time>2026-05-02T23:55:21Z</time></trkpt>
<trkpt lat="50.154600" lon="4.353145"><time>2026-05-03T00:05:21Z</time></trkpt>
<trkpt lat="50.155721" lon="4.350452"><time>2026-05-03T00:15:21Z</time></trkpt>
<trkpt lat="50.156855" lon="4.348349"><time>2026-05-03T00:25:21Z</time></trkpt>
<trkpt lat="50.157899" lon="4.345082"><time>2026-05-03T00:35:21Z</time></trkpt>
</trkseg></trk>
<trk>
<name>hfcfc74</name>
<cmt>r</cmt>
<desc>Froidchapelle Sentier n°74 Rue du Champ de la Truie</desc>
<link href="https://chemins.be/froidchapelle/sentier/74"/><trkseg>
<trkpt lat="50.157899" lon="4.345082"><time>2026-05-03T00:35:21Z</time></trkpt>
<trkpt lat="50.158291" lon="4.345227"><time>2026-05-03T00:45:21Z</time></trkpt>
<trkpt lat="50.158367" lon="4.344637"><time>2026-05-03T00:55:21Z</time></trkpt>
<trkpt lat="50.159109" lon="4.343124"><time>2026-05-03T01:05:21Z</time></trkpt>
<trkpt lat="50.159338" lon="4.343479"><time>2026-05-03T01:15:21Z</time></trkpt>
</trkseg></trk>
<trk>
<name>hfcfc74</name>
<cmt>q</cmt>
<desc>Froidchapelle Sentier n°74 Rue du Champ de la Truie</desc>
<link href="https://chemins.be/froidchapelle/sentier/74"/><trkseg>
<trkpt lat="50.159338" lon="4.343479"><time>2026-05-03T01:15:21Z</time></trkpt>
<trkpt lat="50.159994" lon="4.341519"><time>2026-05-03T01:25:21Z</time></trkpt>
<trkpt lat="50.160381" lon="4.338457"><time>2026-05-03T01:35:21Z</time></trkpt>
<trkpt lat="50.160841" lon="4.334483"><time>2026-05-03T01:45:21Z</time></trkpt>
<trkpt lat="50.161349" lon="4.332895"><time>2026-05-03T01:55:21Z</time></trkpt>
<trkpt lat="50.161465" lon="4.331660"><time>2026-05-03T02:05:21Z</time></trkpt>
<trkpt lat="50.161905" lon="4.329291"><time>2026-05-03T02:15:21Z</time></trkpt>
<trkpt lat="50.161553" lon="4.327849"><time>2026-05-03T02:25:21Z</time></trkpt>
<trkpt lat="50.162015" lon="4.326304"><time>2026-05-03T02:35:21Z</time></trkpt>
<trkpt lat="50.161795" lon="4.324416"><time>2026-05-03T02:45:21Z</time></trkpt>
<trkpt lat="50.162191" lon="4.316451"><time>2026-05-03T02:55:21Z</time></trkpt>
</trkseg>
</trk>
<trk>
<name>hfcfc75</name>
<cmt>q</cmt>
<desc>Froidchapelle Sentier n°75 </desc>
<link href="https://chemins.be/froidchapelle/sentier/75"/><trkseg>
<trkpt lat="50.165972" lon="4.322460"><time>2026-05-02T23:25:21Z</time></trkpt>
<trkpt lat="50.165299" lon="4.322310"><time>2026-05-02T23:35:21Z</time></trkpt>
<trkpt lat="50.164027" lon="4.322911"><time>2026-05-02T23:45:21Z</time></trkpt>
<trkpt lat="50.161808" lon="4.323195"><time>2026-05-02T23:55:21Z</time></trkpt>
<trkpt lat="50.159924" lon="4.323174"><time>2026-05-03T00:05:21Z</time></trkpt>
<trkpt lat="50.158075" lon="4.322954"><time>2026-05-03T00:15:21Z</time></trkpt>
</trkseg>
</trk>
<trk>
<name>hfcfc76</name>
<cmt>q</cmt>
<desc>Froidchapelle Sentier n°76 </desc>
<link href="https://chemins.be/froidchapelle/sentier/76"/><trkseg>
<trkpt lat="50.150952" lon="4.329311"><time>2026-05-02T23:25:21Z</time></trkpt>
<trkpt lat="50.151295" lon="4.329409"><time>2026-05-02T23:35:21Z</time></trkpt>
<trkpt lat="50.151713" lon="4.329954"><time>2026-05-02T23:45:21Z</time></trkpt>
<trkpt lat="50.153317" lon="4.332916"><time>2026-05-02T23:55:21Z</time></trkpt>
<trkpt lat="50.153262" lon="4.333845"><time>2026-05-03T00:05:21Z</time></trkpt>
</trkseg></trk>
<trk>
<name>hfcfc76</name>
<cmt>r</cmt>
<desc>Froidchapelle Sentier n°76 </desc>
<link href="https://chemins.be/froidchapelle/sentier/76"/><trkseg>
<trkpt lat="50.153262" lon="4.333845"><time>2026-05-03T00:05:21Z</time></trkpt>
<trkpt lat="50.153821" lon="4.334375"><time>2026-05-03T00:15:21Z</time></trkpt>
<trkpt lat="50.155493" lon="4.333182"><time>2026-05-03T00:25:21Z</time></trkpt>
</trkseg></trk>
<trk>
<name>hfcfc76</name>
<cmt>q</cmt>
<desc>Froidchapelle Sentier n°76 </desc>
<link href="https://chemins.be/froidchapelle/sentier/76"/><trkseg>
<trkpt lat="50.155493" lon="4.333182"><time>2026-05-03T00:25:21Z</time></trkpt>
<trkpt lat="50.155716" lon="4.333087"><time>2026-05-03T00:35:21Z</time></trkpt>
<trkpt lat="50.157138" lon="4.333531"><time>2026-05-03T00:45:21Z</time></trkpt>
<trkpt lat="50.158309" lon="4.334591"><time>2026-05-03T00:55:21Z</time></trkpt>
<trkpt lat="50.160160" lon="4.334126"><time>2026-05-03T01:05:21Z</time></trkpt>
<trkpt lat="50.162452" lon="4.335108"><time>2026-05-03T01:15:21Z</time></trkpt>
<trkpt lat="50.164160" lon="4.333361"><time>2026-05-03T01:25:21Z</time></trkpt>
<trkpt lat="50.168247" lon="4.331236"><time>2026-05-03T01:35:21Z</time></trkpt>
<trkpt lat="50.171390" lon="4.328497"><time>2026-05-03T01:45:21Z</time></trkpt>
</trkseg>
</trk>
<trk>
<name>hfcfc77</name>
<cmt>q</cmt>
<desc>Froidchapelle Sentier n°77 </desc>
<link href="https://chemins.be/froidchapelle/sentier/77"/><trkseg>
<trkpt lat="50.166824" lon="4.339281"><time>2026-05-02T23:25:21Z</time></trkpt>
<trkpt lat="50.170682" lon="4.341384"><time>2026-05-02T23:35:21Z</time></trkpt>
<trkpt lat="50.171506" lon="4.340798"><time>2026-05-02T23:45:21Z</time></trkpt>
</trkseg>
</trk>
<trk>
<name>hfcfc78</name>
<cmt>q</cmt>
<desc>Froidchapelle Sentier n°78 </desc>
<link href="https://chemins.be/froidchapelle/sentier/78"/><trkseg>
<trkpt lat="50.171166" lon="4.349468"><time>2026-05-02T23:25:21Z</time></trkpt>
<trkpt lat="50.167943" lon="4.347367"><time>2026-05-02T23:35:21Z</time></trkpt>
<trkpt lat="50.166624" lon="4.344335"><time>2026-05-02T23:45:21Z</time></trkpt>
<trkpt lat="50.164967" lon="4.341336"><time>2026-05-02T23:55:21Z</time></trkpt>
<trkpt lat="50.164211" lon="4.340592"><time>2026-05-03T00:05:21Z</time></trkpt>
</trkseg></trk>
<trk>
<name>hfcfc78</name>
<cmt>r</cmt>
<desc>Froidchapelle Sentier n°78 </desc>
<link href="https://chemins.be/froidchapelle/sentier/78"/><trkseg>
<trkpt lat="50.164211" lon="4.340592"><time>2026-05-03T00:05:21Z</time></trkpt>
<trkpt lat="50.163895" lon="4.340542"><time>2026-05-03T00:15:21Z</time></trkpt>
<trkpt lat="50.162484" lon="4.338639"><time>2026-05-03T00:25:21Z</time></trkpt>
<trkpt lat="50.161236" lon="4.337411"><time>2026-05-03T00:35:21Z</time></trkpt>
</trkseg></trk>
<trk>
<name>hfcfc78</name>
<cmt>q</cmt>
<desc>Froidchapelle Sentier n°78 </desc>
<link href="https://chemins.be/froidchapelle/sentier/78"/><trkseg>
<trkpt lat="50.161236" lon="4.337411"><time>2026-05-03T00:35:21Z</time></trkpt>
<trkpt lat="50.158309" lon="4.334584"><time>2026-05-03T00:45:21Z</time></trkpt>
</trkseg>
</trk>
<trk>
<name>hfcfc79</name>
<cmt>q</cmt>
<desc>Froidchapelle Sentier n°79 </desc>
<link href="https://chemins.be/froidchapelle/sentier/79"/><trkseg>
<trkpt lat="50.153850" lon="4.334419"><time>2026-05-02T23:25:21Z</time></trkpt>
<trkpt lat="50.154978" lon="4.334691"><time>2026-05-02T23:35:21Z</time></trkpt>
<trkpt lat="50.155409" lon="4.335106"><time>2026-05-02T23:45:21Z</time></trkpt>
<trkpt lat="50.157027" lon="4.337642"><time>2026-05-02T23:55:21Z</time></trkpt>
<trkpt lat="50.159142" lon="4.342284"><time>2026-05-03T00:05:21Z</time></trkpt>
<trkpt lat="50.159713" lon="4.343298"><time>2026-05-03T00:15:21Z</time></trkpt>
<trkpt lat="50.159979" lon="4.344174"><time>2026-05-03T00:25:21Z</time></trkpt>
<trkpt lat="50.161812" lon="4.345661"><time>2026-05-03T00:35:21Z</time></trkpt>
<trkpt lat="50.162911" lon="4.345833"><time>2026-05-03T00:45:21Z</time></trkpt>
<trkpt lat="50.165752" lon="4.349037"><time>2026-05-03T00:55:21Z</time></trkpt>
</trkseg>
</trk>
<trk>
<name>hfcfc8</name>
<cmt>v</cmt>
<desc>Froidchapelle Chemin n°8 </desc>
<link href="https://chemins.be/froidchapelle/chemin/8"/><trkseg>
<trkpt lat="50.153414" lon="4.358156"><time>2026-05-02T23:25:21Z</time></trkpt>
<trkpt lat="50.153868" lon="4.360280"><time>2026-05-02T23:35:21Z</time></trkpt>
<trkpt lat="50.154734" lon="4.361289"><time>2026-05-02T23:45:21Z</time></trkpt>
<trkpt lat="50.155401" lon="4.361750"><time>2026-05-02T23:55:21Z</time></trkpt>
<trkpt lat="50.157154" lon="4.365140"><time>2026-05-03T00:05:21Z</time></trkpt>
</trkseg>
</trk>
<trk>
<name>hfcfc80</name>
<cmt>q</cmt>
<desc>Froidchapelle Sentier n°80 </desc>
<link href="https://chemins.be/froidchapelle/sentier/80"/><trkseg>
<trkpt lat="50.158869" lon="4.339724"><time>2026-05-02T23:25:21Z</time></trkpt>
<trkpt lat="50.158254" lon="4.340249"><time>2026-05-02T23:35:21Z</time></trkpt>
<trkpt lat="50.157580" lon="4.338832"><time>2026-05-02T23:45:21Z</time></trkpt>
<trkpt lat="50.155898" lon="4.340284"><time>2026-05-02T23:55:21Z</time></trkpt>
</trkseg>
</trk>
<trk>
<name>hfcfc81</name>
<cmt>q</cmt>
<desc>Froidchapelle Sentier n°81 </desc>
<link href="https://chemins.be/froidchapelle/sentier/81"/><trkseg>
<trkpt lat="50.153758" lon="4.334713"><time>2026-05-02T23:25:21Z</time></trkpt>
<trkpt lat="50.153868" lon="4.336422"><time>2026-05-02T23:35:21Z</time></trkpt>
<trkpt lat="50.154280" lon="4.337895"><time>2026-05-02T23:45:21Z</time></trkpt>
<trkpt lat="50.154381" lon="4.338968"><time>2026-05-02T23:55:21Z</time></trkpt>
</trkseg>
</trk>
<trk>
<name>hfcfc82</name>
<cmt>q</cmt>
<desc>Froidchapelle Sentier n°82 </desc>
<link href="https://chemins.be/froidchapelle/sentier/82"/><trkseg>
<trkpt lat="50.151992" lon="4.342077"><time>2026-05-02T23:25:21Z</time></trkpt>
<trkpt lat="50.152531" lon="4.338869"><time>2026-05-02T23:35:21Z</time></trkpt>
<trkpt lat="50.152932" lon="4.337539"><time>2026-05-02T23:45:21Z</time></trkpt>
<trkpt lat="50.153473" lon="4.336702"><time>2026-05-02T23:55:21Z</time></trkpt>
</trkseg>
</trk>
<trk>
<name>hfcfc83</name>
<cmt>q</cmt>
<desc>Froidchapelle Sentier n°83 </desc>
<link href="https://chemins.be/froidchapelle/sentier/83"/><trkseg>
<trkpt lat="50.153779" lon="4.343169"><time>2026-05-02T23:25:21Z</time></trkpt>
<trkpt lat="50.154989" lon="4.344199"><time>2026-05-02T23:35:21Z</time></trkpt>
<trkpt lat="50.156512" lon="4.348009"><time>2026-05-02T23:45:21Z</time></trkpt>
<trkpt lat="50.157683" lon="4.350035"><time>2026-05-02T23:55:21Z</time></trkpt>
<trkpt lat="50.158918" lon="4.351006"><time>2026-05-03T00:05:21Z</time></trkpt>
<trkpt lat="50.160242" lon="4.352666"><time>2026-05-03T00:15:21Z</time></trkpt>
<trkpt lat="50.161448" lon="4.354497"><time>2026-05-03T00:25:21Z</time></trkpt>
<trkpt lat="50.162025" lon="4.354983"><time>2026-05-03T00:35:21Z</time></trkpt>
<trkpt lat="50.162635" lon="4.354432"><time>2026-05-03T00:45:21Z</time></trkpt>
<trkpt lat="50.164046" lon="4.355277"><time>2026-05-03T00:55:21Z</time></trkpt>
<trkpt lat="50.165272" lon="4.357028"><time>2026-05-03T01:05:21Z</time></trkpt>
<trkpt lat="50.167466" lon="4.358693"><time>2026-05-03T01:15:21Z</time></trkpt>
<trkpt lat="50.168483" lon="4.359336"><time>2026-05-03T01:25:21Z</time></trkpt>
</trkseg>
</trk>
<trk>
<name>hfcfc84</name>
<cmt>q</cmt>
<desc>Froidchapelle Sentier n°84 </desc>
<link href="https://chemins.be/froidchapelle/sentier/84"/><trkseg>
<trkpt lat="50.158240" lon="4.364584"><time>2026-05-02T23:25:21Z</time></trkpt>
<trkpt lat="50.158230" lon="4.363812"><time>2026-05-02T23:35:21Z</time></trkpt>
<trkpt lat="50.157999" lon="4.363520"><time>2026-05-02T23:45:21Z</time></trkpt>
<trkpt lat="50.157642" lon="4.359636"><time>2026-05-02T23:55:21Z</time></trkpt>
<trkpt lat="50.155514" lon="4.354692"><time>2026-05-03T00:05:21Z</time></trkpt>
<trkpt lat="50.155205" lon="4.353276"><time>2026-05-03T00:15:21Z</time></trkpt>
<trkpt lat="50.154212" lon="4.351758"><time>2026-05-03T00:25:21Z</time></trkpt>
<trkpt lat="50.154019" lon="4.348778"><time>2026-05-03T00:35:21Z</time></trkpt>
<trkpt lat="50.154150" lon="4.347813"><time>2026-05-03T00:45:21Z</time></trkpt>
<trkpt lat="50.153744" lon="4.345978"><time>2026-05-03T00:55:21Z</time></trkpt>
<trkpt lat="50.153841" lon="4.345581"><time>2026-05-03T01:05:21Z</time></trkpt>
<trkpt lat="50.153799" lon="4.343274"><time>2026-05-03T01:15:21Z</time></trkpt>
</trkseg>
</trk>
<trk>
<name>hfcfc85</name>
<cmt>q</cmt>
<desc>Froidchapelle Sentier n°85 </desc>
<link href="https://chemins.be/froidchapelle/sentier/85"/><trkseg>
<trkpt lat="50.138362" lon="4.329757"><time>2026-05-02T23:25:21Z</time></trkpt>
<trkpt lat="50.143073" lon="4.333016"><time>2026-05-02T23:35:21Z</time></trkpt>
<trkpt lat="50.144668" lon="4.334289"><time>2026-05-02T23:45:21Z</time></trkpt>
<trkpt lat="50.145869" lon="4.336821"><time>2026-05-02T23:55:21Z</time></trkpt>
<trkpt lat="50.146341" lon="4.337144"><time>2026-05-03T00:05:21Z</time></trkpt>
<trkpt lat="50.146744" lon="4.338117"><time>2026-05-03T00:15:21Z</time></trkpt>
<trkpt lat="50.147127" lon="4.338520"><time>2026-05-03T00:25:21Z</time></trkpt>
</trkseg></trk>
<trk>
<name>hfcfc85</name>
<cmt>v</cmt>
<desc>Froidchapelle Sentier n°85 </desc>
<link href="https://chemins.be/froidchapelle/sentier/85"/><trkseg>
<trkpt lat="50.147127" lon="4.338520"><time>2026-05-03T00:25:21Z</time></trkpt>
<trkpt lat="50.148115" lon="4.339390"><time>2026-05-03T00:35:21Z</time></trkpt>
<trkpt lat="50.149040" lon="4.340013"><time>2026-05-03T00:45:21Z</time></trkpt>
<trkpt lat="50.150053" lon="4.342008"><time>2026-05-03T00:55:21Z</time></trkpt>
</trkseg></trk>
<trk>
<name>hfcfc85</name>
<cmt>q</cmt>
<desc>Froidchapelle Sentier n°85 </desc>
<link href="https://chemins.be/froidchapelle/sentier/85"/><trkseg>
<trkpt lat="50.150053" lon="4.342008"><time>2026-05-03T00:55:21Z</time></trkpt>
<trkpt lat="50.150383" lon="4.342895"><time>2026-05-03T01:05:21Z</time></trkpt>
<trkpt lat="50.151126" lon="4.344047"><time>2026-05-03T01:15:21Z</time></trkpt>
<trkpt lat="50.151497" lon="4.343467"><time>2026-05-03T01:25:21Z</time></trkpt>
<trkpt lat="50.151923" lon="4.343632"><time>2026-05-03T01:35:21Z</time></trkpt>
<trkpt lat="50.152189" lon="4.344791"><time>2026-05-03T01:45:21Z</time></trkpt>
<trkpt lat="50.152596" lon="4.344755"><time>2026-05-03T01:55:21Z</time></trkpt>
<trkpt lat="50.153827" lon="4.345921"><time>2026-05-03T02:05:21Z</time></trkpt>
<trkpt lat="50.155239" lon="4.347255"><time>2026-05-03T02:15:21Z</time></trkpt>
<trkpt lat="50.156442" lon="4.347888"><time>2026-05-03T02:25:21Z</time></trkpt>
</trkseg>
</trk>
<trk>
<name>hfcfc86</name>
<cmt>q</cmt>
<desc>Froidchapelle Sentier n°86 </desc>
<link href="https://chemins.be/froidchapelle/sentier/86"/><trkseg>
<trkpt lat="50.157286" lon="4.344682"><time>2026-05-02T23:25:21Z</time></trkpt>
<trkpt lat="50.155403" lon="4.347284"><time>2026-05-02T23:35:21Z</time></trkpt>
</trkseg>
</trk>
<trk>
<name>hfcfc87</name>
<cmt>v</cmt>
<desc>Froidchapelle Sentier n°87 </desc>
<link href="https://chemins.be/froidchapelle/sentier/87"/><trkseg>
<trkpt lat="50.148064" lon="4.339362"><time>2026-05-02T23:25:21Z</time></trkpt>
<trkpt lat="50.148410" lon="4.340843"><time>2026-05-02T23:35:21Z</time></trkpt>
</trkseg></trk>
<trk>
<name>hfcfc87</name>
<cmt>q</cmt>
<desc>Froidchapelle Sentier n°87 </desc>
<link href="https://chemins.be/froidchapelle/sentier/87"/><trkseg>
<trkpt lat="50.148410" lon="4.340843"><time>2026-05-02T23:35:21Z</time></trkpt>
<trkpt lat="50.148765" lon="4.343675"><time>2026-05-02T23:45:21Z</time></trkpt>
<trkpt lat="50.148900" lon="4.346175"><time>2026-05-02T23:55:21Z</time></trkpt>
<trkpt lat="50.148298" lon="4.346994"><time>2026-05-03T00:05:21Z</time></trkpt>
<trkpt lat="50.147931" lon="4.347780"><time>2026-05-03T00:15:21Z</time></trkpt>
<trkpt lat="50.147656" lon="4.348538"><time>2026-05-03T00:25:21Z</time></trkpt>
</trkseg>
</trk>
<trk>
<name>hfcfc88</name>
<cmt>q</cmt>
<desc>Froidchapelle Sentier n°88 </desc>
<link href="https://chemins.be/froidchapelle/sentier/88"/><trkseg>
<trkpt lat="50.150166" lon="4.331880"><time>2026-05-02T23:25:21Z</time></trkpt>
<trkpt lat="50.147259" lon="4.334612"><time>2026-05-02T23:35:21Z</time></trkpt>
<trkpt lat="50.145934" lon="4.335728"><time>2026-05-02T23:45:21Z</time></trkpt>
<trkpt lat="50.144935" lon="4.337810"><time>2026-05-02T23:55:21Z</time></trkpt>
<trkpt lat="50.144870" lon="4.337871"><time>2026-05-03T00:05:21Z</time></trkpt>
<trkpt lat="50.143137" lon="4.339248"><time>2026-05-03T00:15:21Z</time></trkpt>
<trkpt lat="50.142547" lon="4.340056"><time>2026-05-03T00:25:21Z</time></trkpt>
<trkpt lat="50.141829" lon="4.342778"><time>2026-05-03T00:35:21Z</time></trkpt>
<trkpt lat="50.140772" lon="4.345306"><time>2026-05-03T00:45:21Z</time></trkpt>
</trkseg>
</trk>
<trk>
<name>hfcfc89</name>
<cmt>q</cmt>
<desc>Froidchapelle Sentier n°89 </desc>
<link href="https://chemins.be/froidchapelle/sentier/89"/><trkseg>
<trkpt lat="50.149577" lon="4.345626"><time>2026-05-02T23:25:21Z</time></trkpt>
<trkpt lat="50.149199" lon="4.345751"><time>2026-05-02T23:35:21Z</time></trkpt>
<trkpt lat="50.149133" lon="4.346176"><time>2026-05-02T23:45:21Z</time></trkpt>
<trkpt lat="50.148908" lon="4.346144"><time>2026-05-02T23:55:21Z</time></trkpt>
<trkpt lat="50.145011" lon="4.344689"><time>2026-05-03T00:05:21Z</time></trkpt>
<trkpt lat="50.144397" lon="4.343616"><time>2026-05-03T00:15:21Z</time></trkpt>
<trkpt lat="50.142673" lon="4.343773"><time>2026-05-03T00:25:21Z</time></trkpt>
<trkpt lat="50.141730" lon="4.343039"><time>2026-05-03T00:35:21Z</time></trkpt>
</trkseg>
</trk>
<trk>
<name>hfcfc9</name>
<cmt>v</cmt>
<desc>Froidchapelle Chemin n°9 </desc>
<link href="https://chemins.be/froidchapelle/chemin/9"/><trkseg>
<trkpt lat="50.112667" lon="4.370652"><time>2026-05-02T23:25:21Z</time></trkpt>
<trkpt lat="50.112024" lon="4.371725"><time>2026-05-02T23:35:21Z</time></trkpt>
<trkpt lat="50.108869" lon="4.374229"><time>2026-05-02T23:45:21Z</time></trkpt>
<trkpt lat="50.108180" lon="4.376060"><time>2026-05-02T23:55:21Z</time></trkpt>
<trkpt lat="50.107866" lon="4.379123"><time>2026-05-03T00:05:21Z</time></trkpt>
<trkpt lat="50.107330" lon="4.380253"><time>2026-05-03T00:15:21Z</time></trkpt>
<trkpt lat="50.107141" lon="4.382406"><time>2026-05-03T00:25:21Z</time></trkpt>
<trkpt lat="50.107375" lon="4.383557"><time>2026-05-03T00:35:21Z</time></trkpt>
<trkpt lat="50.107018" lon="4.386712"><time>2026-05-03T00:45:21Z</time></trkpt>
</trkseg>
</trk>
<trk>
<name>hfcfc90</name>
<cmt>q</cmt>
<desc>Froidchapelle Sentier n°90 </desc>
<link href="https://chemins.be/froidchapelle/sentier/90"/><trkseg>
<trkpt lat="50.148654" lon="4.335807"><time>2026-05-02T23:25:21Z</time></trkpt>
<trkpt lat="50.150208" lon="4.331934"><time>2026-05-02T23:35:21Z</time></trkpt>
</trkseg>
</trk>
<trk>
<name>hfcfc91</name>
<cmt>q</cmt>
<desc>Froidchapelle Sentier n°91 </desc>
<link href="https://chemins.be/froidchapelle/sentier/91"/><trkseg>
<trkpt lat="50.153185" lon="4.333854"><time>2026-05-02T23:25:21Z</time></trkpt>
<trkpt lat="50.152612" lon="4.335635"><time>2026-05-02T23:35:21Z</time></trkpt>
<trkpt lat="50.150321" lon="4.334741"><time>2026-05-02T23:45:21Z</time></trkpt>
<trkpt lat="50.149142" lon="4.334449"><time>2026-05-02T23:55:21Z</time></trkpt>
<trkpt lat="50.147351" lon="4.334583"><time>2026-05-03T00:05:21Z</time></trkpt>
</trkseg>
</trk>
<trk>
<name>hfcfc92</name>
<cmt>v</cmt>
<desc>Froidchapelle Sentier n°92 </desc>
<link href="https://chemins.be/froidchapelle/sentier/92"/><trkseg>
<trkpt lat="50.151769" lon="4.331714"><time>2026-05-02T23:25:21Z</time></trkpt>
<trkpt lat="50.152219" lon="4.331034"><time>2026-05-02T23:35:21Z</time></trkpt>
<trkpt lat="50.152323" lon="4.330599"><time>2026-05-02T23:45:21Z</time></trkpt>
</trkseg></trk>
<trk>
<name>hfcfc92</name>
<cmt>q</cmt>
<desc>Froidchapelle Sentier n°92 </desc>
<link href="https://chemins.be/froidchapelle/sentier/92"/><trkseg>
<trkpt lat="50.152323" lon="4.330599"><time>2026-05-02T23:45:21Z</time></trkpt>
<trkpt lat="50.153016" lon="4.327846"><time>2026-05-02T23:55:21Z</time></trkpt>
<trkpt lat="50.153456" lon="4.327560"><time>2026-05-03T00:05:21Z</time></trkpt>
<trkpt lat="50.154519" lon="4.326265"><time>2026-05-03T00:15:21Z</time></trkpt>
<trkpt lat="50.154390" lon="4.325164"><time>2026-05-03T00:25:21Z</time></trkpt>
<trkpt lat="50.156040" lon="4.323569"><time>2026-05-03T00:35:21Z</time></trkpt>
</trkseg>
</trk>
<trk>
<name>hfcfc93</name>
<cmt>q</cmt>
<desc>Froidchapelle Sentier n°93 </desc>
<link href="https://chemins.be/froidchapelle/sentier/93"/><trkseg>
<trkpt lat="50.142241" lon="4.339864"><time>2026-05-02T23:25:21Z</time></trkpt>
<trkpt lat="50.140893" lon="4.342432"><time>2026-05-02T23:35:21Z</time></trkpt>
</trkseg></trk>
<trk>
<name>hfcfc93</name>
<cmt>r</cmt>
<desc>Froidchapelle Sentier n°93 </desc>
<link href="https://chemins.be/froidchapelle/sentier/93"/><trkseg>
<trkpt lat="50.140893" lon="4.342432"><time>2026-05-02T23:35:21Z</time></trkpt>
<trkpt lat="50.140260" lon="4.342532"><time>2026-05-02T23:45:21Z</time></trkpt>
</trkseg></trk>
<trk>
<name>hfcfc93</name>
<cmt>q</cmt>
<desc>Froidchapelle Sentier n°93 </desc>
<link href="https://chemins.be/froidchapelle/sentier/93"/><trkseg>
<trkpt lat="50.140260" lon="4.342532"><time>2026-05-02T23:45:21Z</time></trkpt>
<trkpt lat="50.140137" lon="4.342757"><time>2026-05-02T23:55:21Z</time></trkpt>
<trkpt lat="50.139604" lon="4.342999"><time>2026-05-03T00:05:21Z</time></trkpt>
<trkpt lat="50.138459" lon="4.344018"><time>2026-05-03T00:15:21Z</time></trkpt>
<trkpt lat="50.137872" lon="4.344540"><time>2026-05-03T00:25:21Z</time></trkpt>
</trkseg>
</trk>
<trk>
<name>hfcfc94</name>
<cmt>q</cmt>
<desc>Froidchapelle Sentier n°94 </desc>
<link href="https://chemins.be/froidchapelle/sentier/94"/><trkseg>
<trkpt lat="50.145921" lon="4.335764"><time>2026-05-02T23:25:21Z</time></trkpt>
<trkpt lat="50.145284" lon="4.335700"><time>2026-05-02T23:35:21Z</time></trkpt>
<trkpt lat="50.144954" lon="4.335957"><time>2026-05-02T23:45:21Z</time></trkpt>
<trkpt lat="50.144720" lon="4.336014"><time>2026-05-02T23:55:21Z</time></trkpt>
<trkpt lat="50.144674" lon="4.336215"><time>2026-05-03T00:05:21Z</time></trkpt>
<trkpt lat="50.142863" lon="4.337624"><time>2026-05-03T00:15:21Z</time></trkpt>
</trkseg>
</trk>
<trk>
<name>hfcfc95</name>
<cmt>q</cmt>
<desc>Froidchapelle Sentier n°95 </desc>
<link href="https://chemins.be/froidchapelle/sentier/95"/><trkseg>
<trkpt lat="50.133793" lon="4.346259"><time>2026-05-02T23:25:21Z</time></trkpt>
<trkpt lat="50.122385" lon="4.360764"><time>2026-05-02T23:35:21Z</time></trkpt>
</trkseg></trk>
<trk>
<name>hfcfc95</name>
<cmt>r</cmt>
<desc>Froidchapelle Sentier n°95 </desc>
<link href="https://chemins.be/froidchapelle/sentier/95"/><trkseg>
<trkpt lat="50.122385" lon="4.360764"><time>2026-05-02T23:35:21Z</time></trkpt>
<trkpt lat="50.122055" lon="4.362080"><time>2026-05-02T23:45:21Z</time></trkpt>
</trkseg></trk>
<trk>
<name>hfcfc95</name>
<cmt>q</cmt>
<desc>Froidchapelle Sentier n°95 </desc>
<link href="https://chemins.be/froidchapelle/sentier/95"/><trkseg>
<trkpt lat="50.122055" lon="4.362080"><time>2026-05-02T23:45:21Z</time></trkpt>
<trkpt lat="50.121060" lon="4.363721"><time>2026-05-02T23:55:21Z</time></trkpt>
</trkseg>
</trk>
<trk>
<name>hfcfc96</name>
<cmt>q</cmt>
<desc>Froidchapelle Sentier n°96 </desc>
<link href="https://chemins.be/froidchapelle/sentier/96"/><trkseg>
<trkpt lat="50.123413" lon="4.350060"><time>2026-05-02T23:25:21Z</time></trkpt>
<trkpt lat="50.120557" lon="4.349348"><time>2026-05-02T23:35:21Z</time></trkpt>
</trkseg>
</trk>
<trk>
<name>hfcfc97</name>
<cmt>q</cmt>
<desc>Froidchapelle Sentier n°97 </desc>
<link href="https://chemins.be/froidchapelle/sentier/97"/><trkseg>
<trkpt lat="50.126585" lon="4.326432"><time>2026-05-02T23:25:21Z</time></trkpt>
<trkpt lat="50.120367" lon="4.340422"><time>2026-05-02T23:35:21Z</time></trkpt>
</trkseg></trk>
<trk>
<name>hfcfc97</name>
<cmt>v</cmt>
<desc>Froidchapelle Sentier n°97 </desc>
<link href="https://chemins.be/froidchapelle/sentier/97"/><trkseg>
<trkpt lat="50.120367" lon="4.340422"><time>2026-05-02T23:35:21Z</time></trkpt>
<trkpt lat="50.120558" lon="4.349191"><time>2026-05-02T23:45:21Z</time></trkpt>
<trkpt lat="50.119766" lon="4.353071"><time>2026-05-02T23:55:21Z</time></trkpt>
<trkpt lat="50.120459" lon="4.355852"><time>2026-05-03T00:05:21Z</time></trkpt>
</trkseg></trk>
<trk>
<name>hfcfc97</name>
<cmt>q</cmt>
<desc>Froidchapelle Sentier n°97 </desc>
<link href="https://chemins.be/froidchapelle/sentier/97"/><trkseg>
<trkpt lat="50.120459" lon="4.355852"><time>2026-05-03T00:05:21Z</time></trkpt>
<trkpt lat="50.120712" lon="4.355834"><time>2026-05-03T00:15:21Z</time></trkpt>
<trkpt lat="50.120855" lon="4.363748"><time>2026-05-03T00:25:21Z</time></trkpt>
</trkseg>
</trk>
<trk>
<name>hfcfc98</name>
<cmt>q</cmt>
<desc>Froidchapelle Sentier n°98 </desc>
<link href="https://chemins.be/froidchapelle/sentier/98"/><trkseg>
<trkpt lat="50.142971" lon="4.328864"><time>2026-05-02T23:25:21Z</time></trkpt>
<trkpt lat="50.144516" lon="4.328953"><time>2026-05-02T23:35:21Z</time></trkpt>
<trkpt lat="50.146835" lon="4.329439"><time>2026-05-02T23:45:21Z</time></trkpt>
<trkpt lat="50.148503" lon="4.329411"><time>2026-05-02T23:55:21Z</time></trkpt>
<trkpt lat="50.149796" lon="4.329239"><time>2026-05-03T00:05:21Z</time></trkpt>
</trkseg>
</trk>
<trk>
<name>hfcfc99</name>
<cmt>q</cmt>
<desc>Froidchapelle Sentier n°99 </desc>
<link href="https://chemins.be/froidchapelle/sentier/99"/><trkseg>
<trkpt lat="50.147667" lon="4.330700"><time>2026-05-02T23:25:21Z</time></trkpt>
<trkpt lat="50.148575" lon="4.329491"><time>2026-05-02T23:35:21Z</time></trkpt>
</trkseg>
</trk>
<trk>
<name>hfcfci1</name>
<cmt>v</cmt>
<desc>Froidchapelle Sentier n°i1 </desc>
<link href="https://chemins.be/froidchapelle/sentier/i1"/><trkseg>
<trkpt lat="50.174365" lon="4.342732"><time>2026-05-02T23:25:21Z</time></trkpt>
<trkpt lat="50.174535" lon="4.342018"><time>2026-05-02T23:35:21Z</time></trkpt>
<trkpt lat="50.174562" lon="4.339512"><time>2026-05-02T23:45:21Z</time></trkpt>
</trkseg>
</trk>
<trk>
<name>hfcfci2</name>
<cmt>v</cmt>
<desc>Froidchapelle Sentier n°i2 </desc>
<link href="https://chemins.be/froidchapelle/sentier/i2"/><trkseg>
<trkpt lat="50.131283" lon="4.328249"><time>2026-05-02T23:25:21Z</time></trkpt>
<trkpt lat="50.131477" lon="4.327492"><time>2026-05-02T23:35:21Z</time></trkpt>
<trkpt lat="50.131577" lon="4.327479"><time>2026-05-02T23:45:21Z</time></trkpt>
<trkpt lat="50.131924" lon="4.327787"><time>2026-05-02T23:55:21Z</time></trkpt>
<trkpt lat="50.132356" lon="4.327974"><time>2026-05-03T00:05:21Z</time></trkpt>
</trkseg>
</trk>
<trk>
<name>hfcfci3</name>
<cmt>v</cmt>
<desc>Froidchapelle Chemin n°i3 </desc>
<link href="https://chemins.be/froidchapelle/chemin/i3"/><trkseg>
<trkpt lat="50.154274" lon="4.366915"><time>2026-05-02T23:25:21Z</time></trkpt>
<trkpt lat="50.155278" lon="4.375777"><time>2026-05-02T23:35:21Z</time></trkpt>
</trkseg>
</trk>
<trk>
<name>hfcfci4</name>
<cmt>v</cmt>
<desc>Froidchapelle Chemin n°i4 </desc>
<link href="https://chemins.be/froidchapelle/chemin/i4"/><trkseg>
<trkpt lat="50.146655" lon="4.350513"><time>2026-05-02T23:25:21Z</time></trkpt>
<trkpt lat="50.146277" lon="4.351195"><time>2026-05-02T23:35:21Z</time></trkpt>
<trkpt lat="50.144974" lon="4.353357"><time>2026-05-02T23:45:21Z</time></trkpt>
<trkpt lat="50.143461" lon="4.355916"><time>2026-05-02T23:55:21Z</time></trkpt>
<trkpt lat="50.143214" lon="4.356500"><time>2026-05-03T00:05:21Z</time></trkpt>
<trkpt lat="50.142767" lon="4.357938"><time>2026-05-03T00:15:21Z</time></trkpt>
<trkpt lat="50.142392" lon="4.359360"><time>2026-05-03T00:25:21Z</time></trkpt>
<trkpt lat="50.141512" lon="4.362326"><time>2026-05-03T00:35:21Z</time></trkpt>
<trkpt lat="50.141275" lon="4.363045"><time>2026-05-03T00:45:21Z</time></trkpt>
<trkpt lat="50.141179" lon="4.363657"><time>2026-05-03T00:55:21Z</time></trkpt>
<trkpt lat="50.141179" lon="4.364885"><time>2026-05-03T01:05:21Z</time></trkpt>
<trkpt lat="50.141230" lon="4.367444"><time>2026-05-03T01:15:21Z</time></trkpt>
<trkpt lat="50.141239" lon="4.368326"><time>2026-05-03T01:25:21Z</time></trkpt>
</trkseg>
</trk>
<trk>
<name>hfcfci5</name>
<cmt>q</cmt>
<desc>Froidchapelle Chemin n°i5 Rue de la Tourpène</desc>
<link href="https://chemins.be/froidchapelle/chemin/i5"/><trkseg>
<trkpt lat="50.162862" lon="4.333490"><time>2026-05-02T23:25:21Z</time></trkpt>
<trkpt lat="50.161886" lon="4.331477"><time>2026-05-02T23:35:21Z</time></trkpt>
<trkpt lat="50.161471" lon="4.331101"><time>2026-05-02T23:45:21Z</time></trkpt>
<trkpt lat="50.161222" lon="4.331458"><time>2026-05-02T23:55:21Z</time></trkpt>
<trkpt lat="50.159733" lon="4.330314"><time>2026-05-03T00:05:21Z</time></trkpt>
<trkpt lat="50.158601" lon="4.330206"><time>2026-05-03T00:15:21Z</time></trkpt>
<trkpt lat="50.157923" lon="4.329634"><time>2026-05-03T00:25:21Z</time></trkpt>
</trkseg>
</trk>
<trk>
<name>hfcfcL109</name>
<cmt>v</cmt>
<desc>Froidchapelle Chemin n°L109 Ravel</desc>
<link href="https://chemins.be/froidchapelle/chemin/L109"/><trkseg>
<trkpt lat="50.143814" lon="4.298542"><time>2026-05-02T23:25:21Z</time></trkpt>
<trkpt lat="50.143715" lon="4.301753"><time>2026-05-02T23:35:21Z</time></trkpt>
<trkpt lat="50.143511" lon="4.310052"><time>2026-05-02T23:45:21Z</time></trkpt>
<trkpt lat="50.143709" lon="4.315084"><time>2026-05-02T23:55:21Z</time></trkpt>
<trkpt lat="50.143329" lon="4.319014"><time>2026-05-03T00:05:21Z</time></trkpt>
<trkpt lat="50.141109" lon="4.324103"><time>2026-05-03T00:15:21Z</time></trkpt>
<trkpt lat="50.139665" lon="4.326109"><time>2026-05-03T00:25:21Z</time></trkpt>
<trkpt lat="50.137286" lon="4.327939"><time>2026-05-03T00:35:21Z</time></trkpt>
<trkpt lat="50.134609" lon="4.328705"><time>2026-05-03T00:45:21Z</time></trkpt>
<trkpt lat="50.132358" lon="4.328109"><time>2026-05-03T00:55:21Z</time></trkpt>
<trkpt lat="50.131419" lon="4.327691"><time>2026-05-03T01:05:21Z</time></trkpt>
<trkpt lat="50.129989" lon="4.326765"><time>2026-05-03T01:15:21Z</time></trkpt>
<trkpt lat="50.127348" lon="4.325325"><time>2026-05-03T01:25:21Z</time></trkpt>
<trkpt lat="50.120938" lon="4.323935"><time>2026-05-03T01:35:21Z</time></trkpt>
</trkseg>
</trk>
</gpx>